Time,TemperatureF,DewpointF,PressureIn,WindDirection,WindDirectionDegrees,WindSpeedMPH,WindSpeedGustMPH,Humidity,HourlyPrecipIn,Conditions,Clouds,dailyrainin,SoftwareType,DateUTC
2013-02-02 00:00:00,6.4,-29.0,30.40,NW,315,9.0,9.0,17,0.00,,,0.02,meteohub,2013-02-02 05:00:00,
2013-02-02 00:01:00,6.4,-29.0,30.39,NW,315,9.0,11.0,17,0.00,,,0.02,meteohub,2013-02-02 05:01:00,
2013-02-02 00:05:00,6.4,-28.1,30.39,West,270,4.0,11.0,18,0.00,,,0.00,meteohub,2013-02-02 05:05:00,
2013-02-02 00:06:00,6.4,-28.1,30.40,WSW,248,6.0,11.0,18,0.00,,,0.00,meteohub,2013-02-02 05:06:00,
2013-02-02 00:07:00,6.4,-28.1,30.39,WSW,248,7.0,11.0,18,0.00,,,0.00,meteohub,2013-02-02 05:07:00,
2013-02-02 00:11:00,6.3,-28.1,30.40,WSW,248,3.0,11.0,18,0.00,,,0.00,meteohub,2013-02-02 05:11:00,
2013-02-02 00:12:00,6.3,-28.1,30.39,West,270,3.0,11.0,18,0.00,,,0.00,meteohub,2013-02-02 05:12:00,
2013-02-02 00:16:00,6.1,-27.4,30.40,South,180,2.0,11.0,19,0.00,,,0.00,meteohub,2013-02-02 05:16:00,
2013-02-02 00:17:00,6.1,-27.4,30.39,South,180,2.0,11.0,19,0.00,,,0.00,meteohub,2013-02-02 05:17:00,
2013-02-02 00:19:00,6.1,-27.4,30.39,South,180,2.0,11.0,19,0.00,,,0.00,meteohub,2013-02-02 05:19:00,
2013-02-02 00:21:00,6.1,-27.4,30.39,South,180,2.0,7.0,19,0.00,,,0.00,meteohub,2013-02-02 05:21:00,
2013-02-02 00:22:00,6.1,-27.4,30.39,South,180,2.0,7.0,19,0.00,,,0.00,meteohub,2013-02-02 05:22:00,
2013-02-02 00:23:00,5.7,-27.6,30.39,WSW,248,2.0,7.0,19,0.00,,,0.00,meteohub,2013-02-02 05:23:00,
2013-02-02 00:24:00,5.5,-26.9,30.39,WSW,248,2.0,7.0,20,0.00,,,0.00,meteohub,2013-02-02 05:24:00,
2013-02-02 00:26:00,5.5,-26.9,30.39,North,0,2.0,4.0,20,0.00,,,0.00,meteohub,2013-02-02 05:26:00,
2013-02-02 00:27:00,5.5,-26.9,30.39,WSW,248,2.0,4.0,20,0.00,,,0.00,meteohub,2013-02-02 05:27:00,
2013-02-02 00:29:00,5.5,-26.9,30.39,West,270,3.0,4.0,20,0.00,,,0.00,meteohub,2013-02-02 05:29:00,
2013-02-02 00:30:00,5.5,-26.9,30.39,WSW,248,2.0,4.0,20,0.00,,,0.00,meteohub,2013-02-02 05:30:00,
2013-02-02 00:31:00,5.4,-26.1,30.39,West,270,2.0,3.0,21,0.00,,,0.00,meteohub,2013-02-02 05:31:00,
2013-02-02 00:32:00,5.4,-26.1,30.39,WSW,248,2.0,3.0,21,0.00,,,0.00,meteohub,2013-02-02 05:32:00,
2013-02-02 00:35:00,5.4,-26.1,30.39,WSW,248,2.0,3.0,21,0.00,,,0.00,meteohub,2013-02-02 05:35:00,
2013-02-02 00:37:00,5.4,-26.1,30.39,WSW,248,2.0,3.0,21,0.00,,,0.00,meteohub,2013-02-02 05:37:00,
2013-02-02 00:41:00,5.2,-25.4,30.39,WSW,248,4.0,4.0,22,0.00,,,0.00,meteohub,2013-02-02 05:41:00,
2013-02-02 00:42:00,5.2,-25.4,30.39,WSW,248,3.0,4.0,22,0.00,,,0.00,meteohub,2013-02-02 05:42:00,
2013-02-02 00:43:00,5.2,-25.4,30.39,WSW,248,4.0,4.0,22,0.00,,,0.00,meteohub,2013-02-02 05:43:00,
2013-02-02 00:46:00,5.2,-24.5,30.39,WSW,248,3.0,6.0,23,0.00,,,0.00,meteohub,2013-02-02 05:46:00,
2013-02-02 00:48:00,5.4,-24.3,30.39,WSW,248,2.0,6.0,23,0.00,,,0.00,meteohub,2013-02-02 05:48:00,
2013-02-02 00:52:00,5.4,-24.3,30.39,WSW,248,2.0,6.0,23,0.00,,,0.00,meteohub,2013-02-02 05:52:00,
2013-02-02 00:53:00,5.4,-24.3,30.38,WSW,248,2.0,6.0,23,0.00,,,0.00,meteohub,2013-02-02 05:53:00,
2013-02-02 00:54:00,5.4,-24.3,30.38,South,180,3.0,6.0,23,0.00,,,0.00,meteohub,2013-02-02 05:54:00,
2013-02-02 00:57:00,5.4,-24.3,30.38,WSW,248,2.0,6.0,23,0.00,,,0.00,meteohub,2013-02-02 05:57:00,
2013-02-02 00:59:00,5.4,-23.6,30.38,WSW,248,6.0,6.0,24,0.00,,,0.00,meteohub,2013-02-02 05:59:00,
2013-02-02 01:02:00,5.4,-23.6,30.39,West,270,6.0,6.0,24,0.00,,,0.00,meteohub,2013-02-02 06:02:00,
2013-02-02 01:04:00,5.5,-23.4,30.39,WSW,248,2.0,6.0,24,0.00,,,0.00,meteohub,2013-02-02 06:04:00,
2013-02-02 01:05:00,5.5,-23.4,30.38,West,270,6.0,6.0,24,0.00,,,0.00,meteohub,2013-02-02 06:05:00,
2013-02-02 01:08:00,5.5,-23.4,30.38,WSW,248,8.0,8.0,24,0.00,,,0.00,meteohub,2013-02-02 06:08:00,
2013-02-02 01:10:00,5.5,-23.4,30.39,WSW,248,2.0,8.0,24,0.00,,,0.00,meteohub,2013-02-02 06:10:00,
2013-02-02 01:11:00,5.5,-23.4,30.38,WSW,248,2.0,8.0,24,0.00,,,0.00,meteohub,2013-02-02 06:11:00,
2013-02-02 01:14:00,5.5,-23.4,30.38,South,180,4.0,8.0,24,0.00,,,0.00,meteohub,2013-02-02 06:14:00,
2013-02-02 01:15:00,5.5,-23.4,30.38,South,180,4.0,8.0,24,0.00,,,0.00,meteohub,2013-02-02 06:15:00,
2013-02-02 01:16:00,5.5,-23.4,30.38,South,180,4.0,8.0,24,0.00,,,0.00,meteohub,2013-02-02 06:16:00,
2013-02-02 01:20:00,5.4,-23.6,30.38,West,270,2.0,8.0,24,0.00,,,0.00,meteohub,2013-02-02 06:20:00,
2013-02-02 01:21:00,5.4,-23.6,30.38,South,180,2.0,8.0,24,0.00,,,0.00,meteohub,2013-02-02 06:21:00,
2013-02-02 01:22:00,5.4,-23.6,30.38,WSW,248,2.0,8.0,24,0.00,,,0.00,meteohub,2013-02-02 06:22:00,
2013-02-02 01:26:00,5.5,-23.4,30.38,West,270,3.0,4.0,24,0.00,,,0.00,meteohub,2013-02-02 06:26:00,
2013-02-02 01:27:00,5.5,-23.4,30.38,WSW,248,2.0,4.0,24,0.00,,,0.00,meteohub,2013-02-02 06:27:00,
2013-02-02 01:28:00,5.5,-23.4,30.38,West,270,3.0,4.0,24,0.00,,,0.00,meteohub,2013-02-02 06:28:00,
2013-02-02 01:31:00,5.5,-23.4,30.38,WSW,248,5.0,8.0,24,0.00,,,0.00,meteohub,2013-02-02 06:31:00,
2013-02-02 01:32:00,5.5,-23.4,30.37,WSW,248,5.0,8.0,24,0.00,,,0.00,meteohub,2013-02-02 06:32:00,
2013-02-02 01:33:00,5.5,-23.4,30.38,WSW,248,5.0,8.0,24,0.00,,,0.00,meteohub,2013-02-02 06:33:00,
2013-02-02 01:36:00,5.5,-23.4,30.38,WSW,248,5.0,8.0,24,0.00,,,0.00,meteohub,2013-02-02 06:36:00,
2013-02-02 01:37:00,5.5,-23.4,30.38,WSW,248,2.0,8.0,24,0.00,,,0.00,meteohub,2013-02-02 06:37:00,
2013-02-02 01:38:00,5.5,-23.4,30.38,WSW,248,2.0,8.0,24,0.00,,,0.00,meteohub,2013-02-02 06:38:00,
2013-02-02 01:41:00,5.7,-23.3,30.38,WSW,248,5.0,6.0,24,0.00,,,0.00,meteohub,2013-02-02 06:41:00,
2013-02-02 01:43:00,5.7,-23.3,30.38,WSW,248,4.0,6.0,24,0.00,,,0.00,meteohub,2013-02-02 06:43:00,
2013-02-02 01:45:00,5.7,-23.3,30.38,West,270,3.0,5.0,24,0.00,,,0.00,meteohub,2013-02-02 06:45:00,
2013-02-02 01:46:00,5.7,-23.3,30.38,WSW,248,7.0,7.0,24,0.00,,,0.00,meteohub,2013-02-02 06:46:00,
2013-02-02 01:49:00,5.7,-23.3,30.38,WSW,248,4.0,5.0,24,0.00,,,0.00,meteohub,2013-02-02 06:49:00,
2013-02-02 01:50:00,5.5,-23.4,30.38,West,270,2.0,7.0,24,0.00,,,0.00,meteohub,2013-02-02 06:50:00,
2013-02-02 01:52:00,5.5,-23.4,30.38,West,270,6.0,7.0,24,0.00,,,0.00,meteohub,2013-02-02 06:52:00,
2013-02-02 01:54:00,5.5,-23.4,30.38,WSW,248,2.0,7.0,24,0.00,,,0.00,meteohub,2013-02-02 06:54:00,
2013-02-02 01:56:00,5.5,-23.4,30.38,WSW,248,5.0,8.0,24,0.00,,,0.00,meteohub,2013-02-02 06:56:00,
2013-02-02 01:57:00,5.5,-23.4,30.38,West,270,4.0,8.0,24,0.00,,,0.00,meteohub,2013-02-02 06:57:00,
2013-02-02 01:59:00,5.5,-23.4,30.38,WSW,248,3.0,8.0,24,0.00,,,0.00,meteohub,2013-02-02 06:59:00,
2013-02-02 02:00:00,5.5,-23.4,30.38,WSW,248,3.0,8.0,24,0.00,,,0.00,meteohub,2013-02-02 07:00:00,
2013-02-02 02:01:00,5.5,-23.4,30.38,WSW,248,3.0,8.0,24,0.00,,,0.00,meteohub,2013-02-02 07:01:00,
2013-02-02 02:03:00,5.5,-23.4,30.38,WSW,248,3.0,8.0,24,0.00,,,0.00,meteohub,2013-02-02 07:03:00,
2013-02-02 02:05:00,5.4,-23.6,30.38,WSW,248,9.0,9.0,24,0.00,,,0.00,meteohub,2013-02-02 07:05:00,
2013-02-02 02:07:00,5.4,-22.9,30.38,West,270,4.0,8.0,25,0.00,,,0.00,meteohub,2013-02-02 07:07:00,
2013-02-02 02:09:00,5.4,-22.9,30.38,West,270,5.0,8.0,25,0.00,,,0.00,meteohub,2013-02-02 07:09:00,
2013-02-02 02:11:00,5.4,-22.9,30.38,WSW,248,2.0,9.0,25,0.00,,,0.00,meteohub,2013-02-02 07:11:00,
2013-02-02 02:12:00,5.4,-22.9,30.38,WSW,248,3.0,9.0,25,0.00,,,0.00,meteohub,2013-02-02 07:12:00,
2013-02-02 02:16:00,5.4,-22.9,30.38,South,180,4.0,9.0,25,0.00,,,0.00,meteohub,2013-02-02 07:16:00,
2013-02-02 02:17:00,5.4,-22.9,30.38,South,180,4.0,9.0,25,0.00,,,0.00,meteohub,2013-02-02 07:17:00,
2013-02-02 02:21:00,5.4,-22.9,30.38,South,180,4.0,7.0,25,0.00,,,0.00,meteohub,2013-02-02 07:21:00,
2013-02-02 02:22:00,5.4,-22.9,30.38,South,180,4.0,7.0,25,0.00,,,0.00,meteohub,2013-02-02 07:22:00,
2013-02-02 02:23:00,5.4,-22.9,30.38,South,180,4.0,7.0,25,0.00,,,0.00,meteohub,2013-02-02 07:23:00,
2013-02-02 02:25:00,5.4,-22.9,30.38,South,180,7.0,7.0,25,0.00,,,0.00,meteohub,2013-02-02 07:25:00,
2013-02-02 02:26:00,5.4,-22.9,30.38,WSW,248,2.0,5.0,25,0.00,,,0.00,meteohub,2013-02-02 07:26:00,
2013-02-02 02:27:00,5.5,-22.7,30.38,WSW,248,4.0,5.0,25,0.00,,,0.00,meteohub,2013-02-02 07:27:00,
2013-02-02 02:29:00,5.5,-22.0,30.38,WSW,248,4.0,5.0,26,0.00,,,0.00,meteohub,2013-02-02 07:29:00,
2013-02-02 02:31:00,5.5,-22.0,30.38,West,270,2.0,7.0,26,0.00,,,0.00,meteohub,2013-02-02 07:31:00,
2013-02-02 02:32:00,5.5,-22.0,30.38,WSW,248,2.0,7.0,26,0.00,,,0.00,meteohub,2013-02-02 07:32:00,
2013-02-02 02:36:00,5.5,-22.0,30.38,North,0,10.0,10.0,26,0.00,,,0.00,meteohub,2013-02-02 07:36:00,
2013-02-02 02:37:00,5.5,-22.0,30.38,WSW,248,2.0,7.0,26,0.00,,,0.00,meteohub,2013-02-02 07:37:00,
2013-02-02 02:38:00,5.5,-22.0,30.38,WSW,248,5.0,7.0,26,0.00,,,0.00,meteohub,2013-02-02 07:38:00,
2013-02-02 02:41:00,5.7,-21.8,30.38,West,270,5.0,10.0,26,0.00,,,0.00,meteohub,2013-02-02 07:41:00,
2013-02-02 02:42:00,5.7,-21.8,30.38,NE,45,4.0,10.0,26,0.00,,,0.00,meteohub,2013-02-02 07:42:00,
2013-02-02 02:43:00,5.7,-21.8,30.38,WSW,248,2.0,10.0,26,0.00,,,0.00,meteohub,2013-02-02 07:43:00,
2013-02-02 02:47:00,5.7,-21.8,30.37,WSW,248,2.0,10.0,26,0.00,,,0.00,meteohub,2013-02-02 07:47:00,
2013-02-02 02:48:00,5.7,-21.8,30.37,West,270,4.0,10.0,26,0.00,,,0.00,meteohub,2013-02-02 07:48:00,
2013-02-02 02:49:00,5.7,-21.8,30.37,West,270,4.0,10.0,26,0.00,,,0.00,meteohub,2013-02-02 07:49:00,
2013-02-02 02:52:00,5.7,-21.8,30.37,WSW,248,3.0,10.0,26,0.00,,,0.00,meteohub,2013-02-02 07:52:00,
2013-02-02 02:53:00,5.7,-21.8,30.37,South,180,2.0,10.0,26,0.00,,,0.00,meteohub,2013-02-02 07:53:00,
2013-02-02 02:54:00,5.7,-21.8,30.37,South,180,2.0,10.0,26,0.00,,,0.00,meteohub,2013-02-02 07:54:00,
2013-02-02 02:55:00,5.7,-21.8,30.37,West,270,3.0,5.0,26,0.00,,,0.00,meteohub,2013-02-02 07:55:00,
2013-02-02 02:58:00,5.7,-21.8,30.37,WSW,248,3.0,5.0,26,0.00,,,0.00,meteohub,2013-02-02 07:58:00,
2013-02-02 03:00:00,5.7,-21.8,30.37,WSW,248,4.0,4.0,26,0.00,,,0.00,meteohub,2013-02-02 08:00:00,
2013-02-02 03:05:00,5.7,-21.1,30.37,South,180,3.0,4.0,27,0.00,,,0.00,meteohub,2013-02-02 08:05:00,
2013-02-02 03:06:00,5.7,-21.8,30.37,West,270,3.0,4.0,26,0.00,,,0.00,meteohub,2013-02-02 08:06:00,
2013-02-02 03:07:00,5.7,-21.8,30.37,WSW,248,4.0,4.0,26,0.00,,,0.00,meteohub,2013-02-02 08:07:00,
2013-02-02 03:11:00,5.7,-21.1,30.37,West,270,2.0,4.0,27,0.00,,,0.00,meteohub,2013-02-02 08:11:00,
2013-02-02 03:12:00,5.7,-21.1,30.36,South,180,2.0,4.0,27,0.00,,,0.00,meteohub,2013-02-02 08:12:00,
2013-02-02 03:16:00,5.7,-21.1,30.37,WSW,248,1.0,4.0,27,0.00,,,0.00,meteohub,2013-02-02 08:16:00,
2013-02-02 03:17:00,5.7,-21.1,30.37,WSW,248,2.0,4.0,27,0.00,,,0.00,meteohub,2013-02-02 08:17:00,
2013-02-02 03:18:00,5.7,-21.1,30.37,West,270,4.0,4.0,27,0.00,,,0.00,meteohub,2013-02-02 08:18:00,
2013-02-02 03:21:00,5.7,-21.1,30.36,WSW,248,3.0,4.0,27,0.00,,,0.00,meteohub,2013-02-02 08:21:00,
2013-02-02 03:23:00,5.9,-20.9,30.36,WSW,248,3.0,4.0,27,0.00,,,0.00,meteohub,2013-02-02 08:23:00,
2013-02-02 03:24:00,5.9,-20.9,30.36,WSW,248,2.0,4.0,27,0.00,,,0.00,meteohub,2013-02-02 08:24:00,
2013-02-02 03:25:00,5.9,-20.9,30.36,West,270,3.0,5.0,27,0.00,,,0.00,meteohub,2013-02-02 08:25:00,
2013-02-02 03:26:00,5.9,-20.9,30.36,West,270,2.0,5.0,27,0.00,,,0.00,meteohub,2013-02-02 08:26:00,
2013-02-02 03:28:00,5.9,-20.9,30.36,WSW,248,5.0,5.0,27,0.00,,,0.00,meteohub,2013-02-02 08:28:00,
2013-02-02 03:29:00,5.9,-20.9,30.36,West,270,2.0,5.0,27,0.00,,,0.00,meteohub,2013-02-02 08:29:00,
2013-02-02 03:32:00,5.9,-20.9,30.36,WSW,248,4.0,5.0,27,0.00,,,0.00,meteohub,2013-02-02 08:32:00,
2013-02-02 03:33:00,5.9,-20.9,30.36,WSW,248,4.0,5.0,27,0.00,,,0.00,meteohub,2013-02-02 08:33:00,
2013-02-02 03:35:00,5.9,-20.9,30.36,WSW,248,4.0,5.0,27,0.00,,,0.00,meteohub,2013-02-02 08:35:00,
2013-02-02 03:37:00,6.1,-20.7,30.35,West,270,4.0,5.0,27,0.00,,,0.00,meteohub,2013-02-02 08:37:00,
2013-02-02 03:38:00,6.1,-20.7,30.36,NW,315,2.0,5.0,27,0.00,,,0.00,meteohub,2013-02-02 08:38:00,
2013-02-02 03:40:00,6.1,-21.5,30.36,South,180,1.0,5.0,26,0.00,,,0.00,meteohub,2013-02-02 08:40:00,
2013-02-02 03:42:00,6.1,-21.5,30.36,WSW,248,4.0,5.0,26,0.00,,,0.00,meteohub,2013-02-02 08:42:00,
2013-02-02 03:43:00,6.1,-21.5,30.35,West,270,2.0,5.0,26,0.00,,,0.00,meteohub,2013-02-02 08:43:00,
2013-02-02 03:44:00,6.1,-21.5,30.35,West,270,2.0,5.0,26,0.00,,,0.00,meteohub,2013-02-02 08:44:00,
2013-02-02 03:45:00,6.1,-21.5,30.35,South,180,2.0,8.0,26,0.00,,,0.00,meteohub,2013-02-02 08:45:00,
2013-02-02 03:47:00,6.1,-21.5,30.36,WSW,248,4.0,8.0,26,0.00,,,0.00,meteohub,2013-02-02 08:47:00,
2013-02-02 03:49:00,6.1,-21.5,30.35,WSW,248,4.0,8.0,26,0.00,,,0.00,meteohub,2013-02-02 08:49:00,
2013-02-02 03:51:00,6.1,-21.5,30.35,WSW,248,5.0,8.0,26,0.00,,,0.00,meteohub,2013-02-02 08:51:00,
2013-02-02 03:53:00,6.3,-21.3,30.35,WSW,248,7.0,8.0,26,0.00,,,0.00,meteohub,2013-02-02 08:53:00,
2013-02-02 03:54:00,6.3,-21.3,30.36,WSW,248,5.0,8.0,26,0.00,,,0.00,meteohub,2013-02-02 08:54:00,
2013-02-02 03:56:00,6.3,-21.3,30.35,WSW,248,6.0,7.0,26,0.00,,,0.00,meteohub,2013-02-02 08:56:00,
2013-02-02 03:58:00,6.3,-21.3,30.35,West,270,4.0,7.0,26,0.00,,,0.00,meteohub,2013-02-02 08:58:00,
2013-02-02 03:59:00,6.3,-21.3,30.35,WSW,248,2.0,7.0,26,0.00,,,0.00,meteohub,2013-02-02 08:59:00,
2013-02-02 04:00:00,6.3,-21.3,30.35,WSW,248,2.0,7.0,26,0.00,,,0.00,meteohub,2013-02-02 09:00:00,
2013-02-02 04:01:00,6.3,-21.3,30.35,WSW,248,2.0,7.0,26,0.00,,,0.00,meteohub,2013-02-02 09:01:00,
2013-02-02 04:03:00,6.3,-21.3,30.35,WSW,248,2.0,7.0,26,0.00,,,0.00,meteohub,2013-02-02 09:03:00,
2013-02-02 04:05:00,6.3,-21.3,30.35,WSW,248,2.0,7.0,26,0.00,,,0.00,meteohub,2013-02-02 09:05:00,
2013-02-02 04:07:00,6.3,-21.3,30.35,WSW,248,2.0,7.0,26,0.00,,,0.00,meteohub,2013-02-02 09:07:00,
2013-02-02 04:09:00,6.4,-21.1,30.34,WSW,248,1.0,7.0,26,0.00,,,0.00,meteohub,2013-02-02 09:09:00,
2013-02-02 04:10:00,6.4,-21.1,30.35,South,180,4.0,7.0,26,0.00,,,0.00,meteohub,2013-02-02 09:10:00,
2013-02-02 04:12:00,6.4,-21.1,30.35,WSW,248,2.0,7.0,26,0.00,,,0.00,meteohub,2013-02-02 09:12:00,
2013-02-02 04:13:00,6.4,-21.1,30.35,WSW,248,2.0,7.0,26,0.00,,,0.00,meteohub,2013-02-02 09:13:00,
2013-02-02 04:14:00,6.4,-21.1,30.34,WSW,248,4.0,7.0,26,0.00,,,0.00,meteohub,2013-02-02 09:14:00,
2013-02-02 04:16:00,6.4,-21.8,30.35,WSW,248,2.0,4.0,25,0.00,,,0.00,meteohub,2013-02-02 09:16:00,
2013-02-02 04:17:00,6.4,-21.1,30.35,South,180,4.0,4.0,26,0.00,,,0.00,meteohub,2013-02-02 09:17:00,
2013-02-02 04:18:00,6.4,-21.1,30.35,South,180,4.0,4.0,26,0.00,,,0.00,meteohub,2013-02-02 09:18:00,
2013-02-02 04:20:00,6.4,-21.8,30.35,WSW,248,4.0,4.0,25,0.00,,,0.00,meteohub,2013-02-02 09:20:00,
2013-02-02 04:21:00,6.6,-21.8,30.35,WSW,248,4.0,4.0,25,0.00,,,0.00,meteohub,2013-02-02 09:21:00,
2013-02-02 04:22:00,6.6,-21.8,30.35,WSW,248,3.0,4.0,25,0.00,,,0.00,meteohub,2013-02-02 09:22:00,
2013-02-02 04:23:00,6.6,-21.8,30.35,WSW,248,3.0,4.0,25,0.00,,,0.00,meteohub,2013-02-02 09:23:00,
2013-02-02 04:26:00,6.6,-21.8,30.35,WSW,248,2.0,5.0,25,0.00,,,0.00,meteohub,2013-02-02 09:26:00,
2013-02-02 04:27:00,6.6,-21.8,30.35,WSW,248,2.0,5.0,25,0.00,,,0.00,meteohub,2013-02-02 09:27:00,
2013-02-02 04:28:00,6.6,-21.8,30.35,South,180,2.0,5.0,25,0.00,,,0.00,meteohub,2013-02-02 09:28:00,
2013-02-02 04:32:00,6.6,-21.8,30.35,WSW,248,5.0,5.0,25,0.00,,,0.00,meteohub,2013-02-02 09:32:00,
2013-02-02 04:33:00,6.8,-21.6,30.35,WSW,248,3.0,5.0,25,0.00,,,0.00,meteohub,2013-02-02 09:33:00,
2013-02-02 04:35:00,6.8,-21.6,30.35,WSW,248,4.0,5.0,25,0.00,,,0.00,meteohub,2013-02-02 09:35:00,
2013-02-02 04:37:00,6.8,-21.6,30.35,WSW,248,3.0,8.0,25,0.00,,,0.00,meteohub,2013-02-02 09:37:00,
2013-02-02 04:39:00,6.8,-21.6,30.35,West,270,3.0,8.0,25,0.00,,,0.00,meteohub,2013-02-02 09:39:00,
2013-02-02 04:40:00,6.8,-22.4,30.35,WNW,293,7.0,8.0,24,0.00,,,0.00,meteohub,2013-02-02 09:40:00,
2013-02-02 04:42:00,6.8,-22.4,30.35,WSW,248,2.0,8.0,24,0.00,,,0.00,meteohub,2013-02-02 09:42:00,
2013-02-02 04:44:00,6.8,-22.4,30.35,West,270,2.0,8.0,24,0.00,,,0.00,meteohub,2013-02-02 09:44:00,
2013-02-02 04:45:00,6.8,-22.4,30.34,WSW,248,4.0,8.0,24,0.00,,,0.00,meteohub,2013-02-02 09:45:00,
2013-02-02 04:47:00,6.8,-22.4,30.34,NW,315,5.0,8.0,24,0.00,,,0.00,meteohub,2013-02-02 09:47:00,
2013-02-02 04:48:00,6.8,-22.4,30.34,West,270,5.0,8.0,24,0.00,,,0.00,meteohub,2013-02-02 09:48:00,
2013-02-02 04:49:00,6.8,-22.4,30.34,South,180,6.0,8.0,24,0.00,,,0.00,meteohub,2013-02-02 09:49:00,
2013-02-02 04:51:00,7.0,-22.2,30.33,West,270,6.0,7.0,24,0.00,,,0.00,meteohub,2013-02-02 09:51:00,
2013-02-02 04:53:00,7.0,-22.2,30.34,WSW,248,7.0,7.0,24,0.00,,,0.00,meteohub,2013-02-02 09:53:00,
2013-02-02 04:54:00,7.0,-22.2,30.34,South,180,7.0,7.0,24,0.00,,,0.00,meteohub,2013-02-02 09:54:00,
2013-02-02 04:55:00,7.0,-22.2,30.34,WSW,248,4.0,7.0,24,0.00,,,0.00,meteohub,2013-02-02 09:55:00,
2013-02-02 04:56:00,7.0,-23.1,30.34,WSW,248,5.0,7.0,23,0.00,,,0.00,meteohub,2013-02-02 09:56:00,
2013-02-02 04:58:00,7.0,-23.1,30.34,WSW,248,4.0,7.0,23,0.00,,,0.00,meteohub,2013-02-02 09:58:00,
2013-02-02 04:59:00,7.0,-23.1,30.34,West,270,8.0,8.0,23,0.00,,,0.00,meteohub,2013-02-02 09:59:00,
2013-02-02 05:00:00,7.0,-23.1,30.34,West,270,8.0,8.0,23,0.00,,,0.00,meteohub,2013-02-02 10:00:00,
2013-02-02 05:01:00,7.0,-23.1,30.34,West,270,8.0,8.0,23,0.00,,,0.00,meteohub,2013-02-02 10:01:00,
2013-02-02 05:03:00,7.0,-23.1,30.34,West,270,8.0,8.0,23,0.00,,,0.00,meteohub,2013-02-02 10:03:00,
2013-02-02 05:06:00,7.0,-23.1,30.33,WSW,248,5.0,8.0,23,0.00,,,0.00,meteohub,2013-02-02 10:06:00,
2013-02-02 05:07:00,7.0,-23.1,30.33,South,180,10.0,10.0,23,0.00,,,0.00,meteohub,2013-02-02 10:07:00,
2013-02-02 05:09:00,7.0,-23.1,30.33,NW,315,6.0,8.0,23,0.00,,,0.00,meteohub,2013-02-02 10:09:00,
2013-02-02 05:11:00,7.0,-23.1,30.34,WSW,248,5.0,10.0,23,0.00,,,0.00,meteohub,2013-02-02 10:11:00,
2013-02-02 05:14:00,7.0,-23.1,30.34,WSW,248,3.0,10.0,23,0.00,,,0.00,meteohub,2013-02-02 10:14:00,
2013-02-02 05:15:00,7.0,-23.1,30.34,WSW,248,2.0,10.0,23,0.00,,,0.00,meteohub,2013-02-02 10:15:00,
2013-02-02 05:17:00,7.0,-23.1,30.34,WSW,248,7.0,10.0,23,0.00,,,0.00,meteohub,2013-02-02 10:17:00,
2013-02-02 05:20:00,7.0,-23.1,30.34,WSW,248,6.0,10.0,23,0.00,,,0.00,meteohub,2013-02-02 10:20:00,
2013-02-02 05:21:00,7.0,-23.1,30.34,WSW,248,6.0,10.0,23,0.00,,,0.00,meteohub,2013-02-02 10:21:00,
2013-02-02 05:22:00,7.0,-23.1,30.34,WSW,248,6.0,10.0,23,0.00,,,0.00,meteohub,2013-02-02 10:22:00,
2013-02-02 05:25:00,7.0,-23.1,30.34,WSW,248,6.0,8.0,23,0.00,,,0.00,meteohub,2013-02-02 10:25:00,
2013-02-02 05:26:00,7.0,-23.1,30.34,WSW,248,6.0,8.0,23,0.00,,,0.00,meteohub,2013-02-02 10:26:00,
2013-02-02 05:29:00,7.2,-22.9,30.34,WSW,248,3.0,8.0,23,0.00,,,0.00,meteohub,2013-02-02 10:29:00,
2013-02-02 05:30:00,7.2,-22.9,30.34,WSW,248,3.0,8.0,23,0.00,,,0.00,meteohub,2013-02-02 10:30:00,
2013-02-02 05:33:00,7.2,-22.9,30.34,WSW,248,6.0,8.0,23,0.00,,,0.00,meteohub,2013-02-02 10:33:00,
2013-02-02 05:34:00,7.2,-22.9,30.34,WSW,248,4.0,8.0,23,0.00,,,0.00,meteohub,2013-02-02 10:34:00,
2013-02-02 05:36:00,7.2,-22.9,30.34,WSW,248,3.0,7.0,23,0.00,,,0.00,meteohub,2013-02-02 10:36:00,
2013-02-02 05:38:00,7.2,-22.9,30.34,WSW,248,8.0,8.0,23,0.00,,,0.00,meteohub,2013-02-02 10:38:00,
2013-02-02 05:39:00,7.2,-22.9,30.34,WSW,248,7.0,7.0,23,0.00,,,0.00,meteohub,2013-02-02 10:39:00,
2013-02-02 05:41:00,7.2,-22.9,30.34,WSW,248,3.0,9.0,23,0.00,,,0.00,meteohub,2013-02-02 10:41:00,
2013-02-02 05:42:00,7.2,-22.9,30.34,WSW,248,3.0,9.0,23,0.00,,,0.00,meteohub,2013-02-02 10:42:00,
2013-02-02 05:44:00,7.2,-22.9,30.34,West,270,6.0,9.0,23,0.00,,,0.00,meteohub,2013-02-02 10:44:00,
2013-02-02 05:45:00,7.2,-22.9,30.34,WSW,248,8.0,9.0,23,0.00,,,0.00,meteohub,2013-02-02 10:45:00,
2013-02-02 05:46:00,7.2,-22.9,30.34,West,270,4.0,9.0,23,0.00,,,0.00,meteohub,2013-02-02 10:46:00,
2013-02-02 05:47:00,7.2,-22.9,30.34,WSW,248,2.0,9.0,23,0.00,,,0.00,meteohub,2013-02-02 10:47:00,
2013-02-02 05:50:00,7.2,-22.0,30.33,West,270,3.0,9.0,24,0.00,,,0.00,meteohub,2013-02-02 10:50:00,
2013-02-02 05:51:00,7.2,-22.0,30.33,West,270,3.0,9.0,24,0.00,,,0.00,meteohub,2013-02-02 10:51:00,
2013-02-02 05:54:00,7.2,-22.0,30.33,South,180,4.0,9.0,24,0.00,,,0.00,meteohub,2013-02-02 10:54:00,
2013-02-02 05:56:00,7.2,-22.0,30.33,West,270,4.0,8.0,24,0.00,,,0.00,meteohub,2013-02-02 10:56:00,
2013-02-02 05:57:00,7.2,-22.0,30.33,West,270,4.0,8.0,24,0.00,,,0.00,meteohub,2013-02-02 10:57:00,
2013-02-02 05:59:00,7.2,-22.0,30.33,South,180,3.0,8.0,24,0.00,,,0.00,meteohub,2013-02-02 10:59:00,
2013-02-02 06:01:00,7.2,-22.0,30.33,West,270,4.0,8.0,24,0.00,,,0.00,meteohub,2013-02-02 11:01:00,
2013-02-02 06:02:00,7.2,-22.0,30.33,West,270,4.0,8.0,24,0.00,,,0.00,meteohub,2013-02-02 11:02:00,
2013-02-02 06:04:00,7.2,-22.0,30.33,West,270,4.0,8.0,24,0.00,,,0.00,meteohub,2013-02-02 11:04:00,
2013-02-02 06:07:00,7.0,-22.2,30.33,WSW,248,2.0,4.0,24,0.00,,,0.00,meteohub,2013-02-02 11:07:00,
2013-02-02 06:10:00,7.0,-22.2,30.33,WSW,248,5.0,5.0,24,0.00,,,0.00,meteohub,2013-02-02 11:10:00,
2013-02-02 06:12:00,7.0,-22.2,30.33,South,180,4.0,6.0,24,0.00,,,0.00,meteohub,2013-02-02 11:12:00,
2013-02-02 06:13:00,7.0,-22.2,30.33,South,180,4.0,6.0,24,0.00,,,0.00,meteohub,2013-02-02 11:13:00,
2013-02-02 06:15:00,7.0,-22.2,30.33,South,180,4.0,6.0,24,0.00,,,0.00,meteohub,2013-02-02 11:15:00,
2013-02-02 06:17:00,7.0,-22.2,30.33,South,180,4.0,8.0,24,0.00,,,0.00,meteohub,2013-02-02 11:17:00,
2013-02-02 06:18:00,7.0,-22.2,30.33,South,180,4.0,8.0,24,0.00,,,0.00,meteohub,2013-02-02 11:18:00,
2013-02-02 06:20:00,7.0,-22.2,30.33,South,180,4.0,8.0,24,0.00,,,0.00,meteohub,2013-02-02 11:20:00,
2013-02-02 06:24:00,6.6,-22.5,30.32,South,180,4.0,8.0,24,0.00,,,0.00,meteohub,2013-02-02 11:24:00,
2013-02-02 06:26:00,6.6,-22.5,30.32,WSW,248,2.0,5.0,24,0.00,,,0.00,meteohub,2013-02-02 11:26:00,
2013-02-02 06:28:00,6.4,-21.8,30.32,South,180,3.0,5.0,25,0.00,,,0.00,meteohub,2013-02-02 11:28:00,
2013-02-02 06:29:00,6.4,-21.8,30.33,South,180,4.0,5.0,25,0.00,,,0.00,meteohub,2013-02-02 11:29:00,
2013-02-02 06:31:00,6.3,-22.0,30.32,South,180,2.0,4.0,25,0.00,,,0.00,meteohub,2013-02-02 11:31:00,
2013-02-02 06:32:00,6.3,-22.0,30.32,South,180,3.0,4.0,25,0.00,,,0.00,meteohub,2013-02-02 11:32:00,
2013-02-02 06:34:00,6.1,-22.2,30.33,WSW,248,2.0,4.0,25,0.00,,,0.00,meteohub,2013-02-02 11:34:00,
2013-02-02 06:36:00,6.1,-22.2,30.32,WSW,248,2.0,4.0,25,0.00,,,0.00,meteohub,2013-02-02 11:36:00,
2013-02-02 06:38:00,5.9,-21.6,30.32,WSW,248,6.0,6.0,26,0.00,,,0.00,meteohub,2013-02-02 11:38:00,
2013-02-02 06:39:00,5.9,-21.6,30.33,WSW,248,2.0,4.0,26,0.00,,,0.00,meteohub,2013-02-02 11:39:00,
2013-02-02 06:40:00,5.9,-21.6,30.33,WSW,248,2.0,6.0,26,0.00,,,0.00,meteohub,2013-02-02 11:40:00,
2013-02-02 06:42:00,5.9,-21.6,30.33,WSW,248,3.0,6.0,26,0.00,,,0.00,meteohub,2013-02-02 11:42:00,
2013-02-02 06:43:00,5.7,-21.8,30.32,WSW,248,4.0,6.0,26,0.00,,,0.00,meteohub,2013-02-02 11:43:00,
2013-02-02 06:45:00,5.7,-21.8,30.33,South,180,5.0,6.0,26,0.00,,,0.00,meteohub,2013-02-02 11:45:00,
2013-02-02 06:46:00,5.7,-21.8,30.33,WSW,248,4.0,6.0,26,0.00,,,0.00,meteohub,2013-02-02 11:46:00,
2013-02-02 06:47:00,5.7,-21.1,30.33,WSW,248,3.0,6.0,27,0.00,,,0.00,meteohub,2013-02-02 11:47:00,
2013-02-02 06:48:00,5.7,-21.1,30.32,WSW,248,5.0,6.0,27,0.00,,,0.00,meteohub,2013-02-02 11:48:00,
2013-02-02 06:50:00,5.7,-21.1,30.33,South,180,2.0,6.0,27,0.00,,,0.00,meteohub,2013-02-02 11:50:00,
2013-02-02 06:51:00,5.7,-21.1,30.32,WSW,248,5.0,6.0,27,0.00,,,0.00,meteohub,2013-02-02 11:51:00,
2013-02-02 06:52:00,5.5,-21.3,30.33,South,180,2.0,6.0,27,0.00,,,0.00,meteohub,2013-02-02 11:52:00,
2013-02-02 06:53:00,5.5,-21.3,30.32,South,180,2.0,6.0,27,0.00,,,0.00,meteohub,2013-02-02 11:53:00,
2013-02-02 06:56:00,5.5,-20.6,30.32,WSW,248,2.0,5.0,28,0.00,,,0.00,meteohub,2013-02-02 11:56:00,
2013-02-02 06:59:00,5.4,-20.7,30.32,WSW,248,4.0,5.0,28,0.00,,,0.00,meteohub,2013-02-02 11:59:00,
2013-02-02 07:00:00,5.4,-20.7,30.32,WSW,248,4.0,5.0,28,0.00,,,0.00,meteohub,2013-02-02 12:00:00,
2013-02-02 07:01:00,5.4,-20.7,30.32,South,180,5.0,5.0,28,0.00,,,0.00,meteohub,2013-02-02 12:01:00,
2013-02-02 07:06:00,5.4,-20.7,30.32,South,180,3.0,5.0,28,0.00,,,0.00,meteohub,2013-02-02 12:06:00,
2013-02-02 07:07:00,5.4,-20.7,30.32,WSW,248,3.0,5.0,28,0.00,,,0.00,meteohub,2013-02-02 12:07:00,
2013-02-02 07:11:00,5.4,-20.7,30.32,South,180,2.0,6.0,28,0.00,,,0.00,meteohub,2013-02-02 12:11:00,
2013-02-02 07:12:00,5.4,-20.0,30.32,South,180,4.0,6.0,29,0.00,,,0.00,meteohub,2013-02-02 12:12:00,
2013-02-02 07:13:00,5.4,-20.0,30.33,WSW,248,4.0,6.0,29,0.00,,,0.00,meteohub,2013-02-02 12:13:00,
2013-02-02 07:17:00,5.2,-20.2,30.33,South,180,4.0,6.0,29,0.00,,,0.00,meteohub,2013-02-02 12:17:00,
2013-02-02 07:18:00,5.2,-20.2,30.32,South,180,4.0,6.0,29,0.00,,,0.00,meteohub,2013-02-02 12:18:00,
2013-02-02 07:22:00,5.4,-20.0,30.32,WSW,248,6.0,6.0,29,0.00,,,0.00,meteohub,2013-02-02 12:22:00,
2013-02-02 07:23:00,5.4,-20.0,30.32,West,270,6.0,6.0,29,0.00,,,0.00,meteohub,2013-02-02 12:23:00,
2013-02-02 07:24:00,5.4,-20.0,30.32,WSW,248,4.0,4.0,29,0.00,,,0.00,meteohub,2013-02-02 12:24:00,
2013-02-02 07:28:00,5.4,-19.3,30.32,South,180,6.0,6.0,30,0.00,,,0.00,meteohub,2013-02-02 12:28:00,
2013-02-02 07:29:00,5.4,-19.3,30.32,South,180,5.0,6.0,30,0.00,,,0.00,meteohub,2013-02-02 12:29:00,
2013-02-02 07:30:00,5.4,-20.0,30.32,West,270,5.0,6.0,29,0.00,,,0.00,meteohub,2013-02-02 12:30:00,
2013-02-02 07:33:00,5.4,-20.0,30.32,WSW,248,5.0,6.0,29,0.00,,,0.00,meteohub,2013-02-02 12:33:00,
2013-02-02 07:34:00,5.4,-19.3,30.32,WSW,248,3.0,6.0,30,0.00,,,0.00,meteohub,2013-02-02 12:34:00,
2013-02-02 07:35:00,5.4,-20.0,30.32,WSW,248,7.0,7.0,29,0.00,,,0.00,meteohub,2013-02-02 12:35:00,
2013-02-02 07:39:00,5.4,-19.3,30.32,WSW,248,8.0,8.0,30,0.00,,,0.00,meteohub,2013-02-02 12:39:00,
2013-02-02 07:40:00,5.4,-19.3,30.32,South,180,4.0,8.0,30,0.00,,,0.00,meteohub,2013-02-02 12:40:00,
2013-02-02 07:41:00,5.4,-19.3,30.32,WSW,248,5.0,8.0,30,0.00,,,0.00,meteohub,2013-02-02 12:41:00,
2013-02-02 07:44:00,5.5,-19.8,30.32,South,180,3.0,8.0,29,0.00,,,0.00,meteohub,2013-02-02 12:44:00,
2013-02-02 07:45:00,5.5,-19.8,30.32,WSW,248,8.0,8.0,29,0.00,,,0.00,meteohub,2013-02-02 12:45:00,
2013-02-02 07:46:00,5.5,-19.8,30.32,WSW,248,7.0,8.0,29,0.00,,,0.00,meteohub,2013-02-02 12:46:00,
2013-02-02 07:49:00,5.7,-19.7,30.32,WSW,248,5.0,8.0,29,0.00,,,0.00,meteohub,2013-02-02 12:49:00,
2013-02-02 07:51:00,5.7,-19.7,30.32,South,180,7.0,8.0,29,0.00,,,0.00,meteohub,2013-02-02 12:51:00,
2013-02-02 07:54:00,5.9,-19.5,30.32,WSW,248,6.0,8.0,29,0.00,,,0.00,meteohub,2013-02-02 12:54:00,
2013-02-02 07:55:00,5.9,-19.5,30.32,WSW,248,9.0,9.0,29,0.00,,,0.00,meteohub,2013-02-02 12:55:00,
2013-02-02 07:56:00,5.9,-19.5,30.32,WSW,248,8.0,8.0,29,0.00,,,0.00,meteohub,2013-02-02 12:56:00,
2013-02-02 07:57:00,6.1,-19.3,30.32,WSW,248,5.0,8.0,29,0.00,,,0.00,meteohub,2013-02-02 12:57:00,
2013-02-02 07:59:00,6.1,-20.0,30.32,WSW,248,3.0,8.0,28,0.00,,,0.00,meteohub,2013-02-02 12:59:00,
2013-02-02 08:02:00,6.3,-19.8,30.32,WSW,248,5.0,9.0,28,0.00,,,0.00,meteohub,2013-02-02 13:02:00,
2013-02-02 08:03:00,6.3,-19.8,30.32,SE,135,4.0,9.0,28,0.00,,,0.00,meteohub,2013-02-02 13:03:00,
2013-02-02 08:04:00,6.3,-19.8,30.32,West,270,4.0,9.0,28,0.00,,,0.00,meteohub,2013-02-02 13:04:00,
2013-02-02 08:07:00,6.3,-19.8,30.32,WSW,248,7.0,9.0,28,0.00,,,0.00,meteohub,2013-02-02 13:07:00,
2013-02-02 08:08:00,6.4,-20.4,30.32,South,180,7.0,9.0,27,0.00,,,0.00,meteohub,2013-02-02 13:08:00,
2013-02-02 08:09:00,6.4,-20.4,30.32,South,180,7.0,9.0,27,0.00,,,0.00,meteohub,2013-02-02 13:09:00,
2013-02-02 08:10:00,6.4,-20.4,30.32,South,180,4.0,9.0,27,0.00,,,0.00,meteohub,2013-02-02 13:10:00,
2013-02-02 08:12:00,6.6,-20.2,30.32,WSW,248,3.0,9.0,27,0.00,,,0.00,meteohub,2013-02-02 13:12:00,
2013-02-02 08:14:00,6.4,-20.4,30.32,WSW,248,7.0,9.0,27,0.00,,,0.00,meteohub,2013-02-02 13:14:00,
2013-02-02 08:15:00,6.6,-20.9,30.32,WSW,248,3.0,9.0,26,0.00,,,0.00,meteohub,2013-02-02 13:15:00,
2013-02-02 08:18:00,6.6,-20.9,30.32,WSW,248,6.0,8.0,26,0.00,,,0.00,meteohub,2013-02-02 13:18:00,
2013-02-02 08:19:00,6.8,-20.9,30.32,WSW,248,4.0,8.0,26,0.00,,,0.00,meteohub,2013-02-02 13:19:00,
2013-02-02 08:21:00,6.8,-20.9,30.32,WSW,248,4.0,7.0,26,0.00,,,0.00,meteohub,2013-02-02 13:21:00,
2013-02-02 08:23:00,7.0,-21.5,30.32,South,180,3.0,7.0,25,0.00,,,0.00,meteohub,2013-02-02 13:23:00,
2013-02-02 08:24:00,7.0,-21.5,30.32,South,180,3.0,7.0,25,0.00,,,0.00,meteohub,2013-02-02 13:24:00,
2013-02-02 08:26:00,7.2,-21.3,30.32,WSW,248,8.0,8.0,25,0.00,,,0.00,meteohub,2013-02-02 13:26:00,
2013-02-02 08:28:00,7.2,-21.3,30.31,WSW,248,4.0,7.0,25,0.00,,,0.00,meteohub,2013-02-02 13:28:00,
2013-02-02 08:29:00,7.3,-21.1,30.32,South,180,5.0,7.0,25,0.00,,,0.00,meteohub,2013-02-02 13:29:00,
2013-02-02 08:30:00,7.3,-21.1,30.32,South,180,5.0,7.0,25,0.00,,,0.00,meteohub,2013-02-02 13:30:00,
2013-02-02 08:34:00,7.7,-21.6,30.31,South,180,3.0,8.0,24,0.00,,,0.00,meteohub,2013-02-02 13:34:00,
2013-02-02 08:35:00,7.9,-21.5,30.31,South,180,2.0,8.0,24,0.00,,,0.00,meteohub,2013-02-02 13:35:00,
2013-02-02 08:40:00,8.1,-22.9,30.31,WSW,248,5.0,8.0,22,0.00,,,0.00,meteohub,2013-02-02 13:40:00,
2013-02-02 08:41:00,8.1,-22.9,30.32,WSW,248,5.0,8.0,22,0.00,,,0.00,meteohub,2013-02-02 13:41:00,
2013-02-02 08:42:00,8.1,-22.9,30.32,South,180,6.0,8.0,22,0.00,,,0.00,meteohub,2013-02-02 13:42:00,
2013-02-02 08:45:00,8.4,-23.4,30.32,WSW,248,2.0,7.0,21,0.00,,,0.00,meteohub,2013-02-02 13:45:00,
2013-02-02 08:46:00,8.6,-23.4,30.32,WSW,248,7.0,7.0,21,0.00,,,0.00,meteohub,2013-02-02 13:46:00,
2013-02-02 08:47:00,8.8,-23.3,30.31,South,180,8.0,8.0,21,0.00,,,0.00,meteohub,2013-02-02 13:47:00,
2013-02-02 08:51:00,8.8,-24.2,30.31,WSW,248,7.0,8.0,20,0.00,,,0.00,meteohub,2013-02-02 13:51:00,
2013-02-02 08:52:00,8.8,-24.2,30.31,West,270,6.0,8.0,20,0.00,,,0.00,meteohub,2013-02-02 13:52:00,
2013-02-02 08:53:00,9.0,-24.9,30.31,West,270,4.0,8.0,19,0.00,,,0.00,meteohub,2013-02-02 13:53:00,
2013-02-02 08:56:00,9.0,-26.0,30.31,South,180,6.0,8.0,18,0.00,,,0.00,meteohub,2013-02-02 13:56:00,
2013-02-02 08:57:00,9.1,-25.8,30.31,South,180,6.0,8.0,18,0.00,,,0.00,meteohub,2013-02-02 13:57:00,
2013-02-02 08:58:00,9.1,-25.8,30.31,West,270,7.0,8.0,18,0.00,,,0.00,meteohub,2013-02-02 13:58:00,
2013-02-02 09:01:00,9.5,-25.4,30.32,WSW,248,3.0,8.0,18,0.00,,,0.00,meteohub,2013-02-02 14:01:00,
2013-02-02 09:03:00,9.5,-26.5,30.32,WSW,248,7.0,8.0,17,0.00,,,0.00,meteohub,2013-02-02 14:03:00,
2013-02-02 09:04:00,9.5,-26.5,30.32,South,180,6.0,8.0,17,0.00,,,0.00,meteohub,2013-02-02 14:04:00,
2013-02-02 09:08:00,9.9,-26.3,30.31,West,270,8.0,8.0,17,0.00,,,0.00,meteohub,2013-02-02 14:08:00,
2013-02-02 09:09:00,9.9,-26.3,30.31,West,270,8.0,8.0,17,0.00,,,0.00,meteohub,2013-02-02 14:09:00,
2013-02-02 09:10:00,10.2,-26.0,30.31,South,180,5.0,8.0,17,0.00,,,0.00,meteohub,2013-02-02 14:10:00,
2013-02-02 09:14:00,10.8,-26.7,30.31,West,270,7.0,8.0,16,0.00,,,0.00,meteohub,2013-02-02 14:14:00,
2013-02-02 09:15:00,10.8,-26.7,30.32,WSW,248,6.0,8.0,16,0.00,,,0.00,meteohub,2013-02-02 14:15:00,
2013-02-02 09:19:00,10.9,-29.0,30.31,WSW,248,3.0,8.0,14,0.00,,,0.00,meteohub,2013-02-02 14:19:00,
2013-02-02 09:20:00,10.9,-29.0,30.31,WSW,248,3.0,8.0,14,0.00,,,0.00,meteohub,2013-02-02 14:20:00,
2013-02-02 09:25:00,11.5,-28.5,30.30,WSW,248,4.0,9.0,14,0.00,,,0.00,meteohub,2013-02-02 14:25:00,
2013-02-02 09:26:00,11.7,-29.7,30.30,WSW,248,8.0,9.0,13,0.00,,,0.00,meteohub,2013-02-02 14:26:00,
2013-02-02 09:31:00,11.5,-31.4,30.30,West,270,6.0,10.0,12,0.00,,,0.00,meteohub,2013-02-02 14:31:00,
2013-02-02 09:32:00,11.5,-31.4,30.30,SE,135,4.0,10.0,12,0.00,,,0.00,meteohub,2013-02-02 14:32:00,
2013-02-02 09:36:00,11.8,-29.6,30.30,SE,135,6.0,10.0,13,0.00,,,0.00,meteohub,2013-02-02 14:36:00,
2013-02-02 09:37:00,11.8,-31.0,30.30,South,180,5.0,10.0,12,0.00,,,0.00,meteohub,2013-02-02 14:37:00,
2013-02-02 09:42:00,12.0,-30.8,30.29,South,180,6.0,10.0,12,0.00,,,0.00,meteohub,2013-02-02 14:42:00,
2013-02-02 09:43:00,12.0,-30.8,30.29,WSW,248,5.0,10.0,12,0.00,,,0.00,meteohub,2013-02-02 14:43:00,
2013-02-02 09:47:00,12.4,-30.6,30.29,West,270,7.0,10.0,12,0.00,,,0.00,meteohub,2013-02-02 14:47:00,
2013-02-02 09:48:00,12.4,-30.6,30.29,West,270,7.0,10.0,12,0.00,,,0.00,meteohub,2013-02-02 14:48:00,
2013-02-02 09:49:00,12.4,-30.6,30.29,WSW,248,7.0,10.0,12,0.00,,,0.00,meteohub,2013-02-02 14:49:00,
2013-02-02 09:53:00,12.6,-30.5,30.29,WSW,248,7.0,11.0,12,0.00,,,0.00,meteohub,2013-02-02 14:53:00,
2013-02-02 09:54:00,12.6,-30.5,30.29,WSW,248,7.0,11.0,12,0.00,,,0.00,meteohub,2013-02-02 14:54:00,
2013-02-02 09:58:00,12.9,-30.1,30.29,WSW,248,4.0,11.0,12,0.00,,,0.00,meteohub,2013-02-02 14:58:00,
2013-02-02 09:59:00,12.9,-30.1,30.29,WSW,248,4.0,11.0,12,0.00,,,0.00,meteohub,2013-02-02 14:59:00,
2013-02-02 10:00:00,12.9,-30.1,30.29,WSW,248,4.0,11.0,12,0.00,,,0.00,meteohub,2013-02-02 15:00:00,
2013-02-02 10:04:00,13.5,-29.7,30.29,WSW,248,13.0,13.0,12,0.00,,,0.00,meteohub,2013-02-02 15:04:00,
2013-02-02 10:06:00,13.1,-30.1,30.29,South,180,7.0,11.0,12,0.00,,,0.00,meteohub,2013-02-02 15:06:00,
2013-02-02 10:09:00,13.5,-26.9,30.29,South,180,4.0,11.0,14,0.00,,,0.00,meteohub,2013-02-02 15:09:00,
2013-02-02 10:11:00,13.6,-26.7,30.29,West,270,9.0,13.0,14,0.00,,,0.00,meteohub,2013-02-02 15:11:00,
2013-02-02 10:12:00,13.6,-26.7,30.29,WSW,248,6.0,13.0,14,0.00,,,0.00,meteohub,2013-02-02 15:12:00,
2013-02-02 10:15:00,13.5,-25.6,30.29,West,270,4.0,13.0,15,0.00,,,0.00,meteohub,2013-02-02 15:15:00,
2013-02-02 10:17:00,13.6,-24.3,30.29,WSW,248,9.0,13.0,16,0.00,,,0.00,meteohub,2013-02-02 15:17:00,
2013-02-02 10:19:00,13.6,-24.3,30.29,WSW,248,9.0,13.0,16,0.00,,,0.00,meteohub,2013-02-02 15:19:00,
2013-02-02 10:20:00,13.5,-24.3,30.29,WSW,248,11.0,11.0,16,0.00,,,0.00,meteohub,2013-02-02 15:20:00,
2013-02-02 10:23:00,13.3,-24.5,30.28,WSW,248,4.0,11.0,16,0.00,,,0.00,meteohub,2013-02-02 15:23:00,
2013-02-02 10:25:00,13.5,-23.3,30.29,West,270,7.0,11.0,17,0.00,,,0.00,meteohub,2013-02-02 15:25:00,
2013-02-02 10:29:00,13.6,-22.0,30.29,WSW,248,7.0,11.0,18,0.00,,,0.00,meteohub,2013-02-02 15:29:00,
2013-02-02 10:30:00,13.6,-22.0,30.28,WSW,248,5.0,11.0,18,0.00,,,0.00,meteohub,2013-02-02 15:30:00,
2013-02-02 10:31:00,13.6,-22.0,30.28,WSW,248,5.0,11.0,18,0.00,,,0.00,meteohub,2013-02-02 15:31:00,
2013-02-02 10:33:00,13.8,-19.8,30.28,WSW,248,6.0,11.0,20,0.00,,,0.00,meteohub,2013-02-02 15:33:00,
2013-02-02 10:35:00,13.6,-20.0,30.28,WSW,248,8.0,11.0,20,0.00,,,0.00,meteohub,2013-02-02 15:35:00,
2013-02-02 10:36:00,13.6,-20.0,30.28,WSW,248,6.0,11.0,20,0.00,,,0.00,meteohub,2013-02-02 15:36:00,
2013-02-02 10:38:00,13.8,-18.0,30.28,NE,45,7.0,11.0,22,0.00,,,0.00,meteohub,2013-02-02 15:38:00,
2013-02-02 10:40:00,14.0,-17.9,30.28,NW,315,3.0,9.0,22,0.00,,,0.00,meteohub,2013-02-02 15:40:00,
2013-02-02 10:42:00,14.2,-16.8,30.28,WSW,248,3.0,9.0,23,0.00,,,0.00,meteohub,2013-02-02 15:42:00,
2013-02-02 10:44:00,14.0,-17.0,30.27,WSW,248,12.0,12.0,23,0.00,,,0.00,meteohub,2013-02-02 15:44:00,
2013-02-02 10:45:00,14.0,-17.9,30.27,WSW,248,8.0,9.0,22,0.00,,,0.00,meteohub,2013-02-02 15:45:00,
2013-02-02 10:47:00,14.2,-16.8,30.27,WSW,248,4.0,9.0,23,0.00,,,0.00,meteohub,2013-02-02 15:47:00,
2013-02-02 10:48:00,14.2,-16.8,30.27,SE,135,11.0,11.0,23,0.00,,,0.00,meteohub,2013-02-02 15:48:00,
2013-02-02 10:49:00,14.2,-16.8,30.27,South,180,4.0,9.0,23,0.00,,,0.00,meteohub,2013-02-02 15:49:00,
2013-02-02 10:51:00,14.2,-16.8,30.27,WSW,248,8.0,12.0,23,0.00,,,0.00,meteohub,2013-02-02 15:51:00,
2013-02-02 10:52:00,14.4,-15.9,30.27,South,180,6.0,12.0,24,0.00,,,0.00,meteohub,2013-02-02 15:52:00,
2013-02-02 10:53:00,14.4,-16.6,30.27,WSW,248,7.0,12.0,23,0.00,,,0.00,meteohub,2013-02-02 15:53:00,
2013-02-02 10:54:00,14.4,-16.6,30.27,South,180,6.0,12.0,23,0.00,,,0.00,meteohub,2013-02-02 15:54:00,
2013-02-02 10:56:00,14.4,-16.6,30.27,WSW,248,7.0,12.0,23,0.00,,,0.00,meteohub,2013-02-02 15:56:00,
2013-02-02 10:58:00,14.4,-16.6,30.27,South,180,12.0,12.0,23,0.00,,,0.00,meteohub,2013-02-02 15:58:00,
2013-02-02 10:59:00,14.5,-16.6,30.27,SE,135,5.0,12.0,23,0.00,,,0.00,meteohub,2013-02-02 15:59:00,
2013-02-02 11:00:00,14.7,-16.4,30.27,WSW,248,3.0,12.0,23,0.00,,,0.00,meteohub,2013-02-02 16:00:00,
2013-02-02 11:01:00,14.5,-16.6,30.27,SSW,203,8.0,12.0,23,0.00,,,0.00,meteohub,2013-02-02 16:01:00,
2013-02-02 11:03:00,14.7,-16.4,30.27,South,180,2.0,12.0,23,0.00,,,0.00,meteohub,2013-02-02 16:03:00,
2013-02-02 11:04:00,14.9,-15.3,30.27,WSW,248,5.0,12.0,24,0.00,,,0.00,meteohub,2013-02-02 16:04:00,
2013-02-02 11:06:00,14.7,-15.5,30.27,WSW,248,10.0,12.0,24,0.00,,,0.00,meteohub,2013-02-02 16:06:00,
2013-02-02 11:07:00,14.7,-16.4,30.26,WSW,248,6.0,12.0,23,0.00,,,0.00,meteohub,2013-02-02 16:07:00,
2013-02-02 11:08:00,14.5,-16.6,30.26,WSW,248,7.0,12.0,23,0.00,,,0.00,meteohub,2013-02-02 16:08:00,
2013-02-02 11:09:00,14.7,-16.4,30.26,WSW,248,6.0,12.0,23,0.00,,,0.00,meteohub,2013-02-02 16:09:00,
2013-02-02 11:12:00,14.7,-16.4,30.26,WSW,248,5.0,12.0,23,0.00,,,0.00,meteohub,2013-02-02 16:12:00,
2013-02-02 11:13:00,14.7,-15.5,30.26,WSW,248,6.0,12.0,24,0.00,,,0.00,meteohub,2013-02-02 16:13:00,
2013-02-02 11:15:00,14.9,-15.3,30.26,WSW,248,4.0,11.0,24,0.00,,,0.00,meteohub,2013-02-02 16:15:00,
2013-02-02 11:18:00,14.9,-15.3,30.26,WSW,248,8.0,11.0,24,0.00,,,0.00,meteohub,2013-02-02 16:18:00,
2013-02-02 11:19:00,14.9,-15.3,30.26,SE,135,9.0,11.0,24,0.00,,,0.00,meteohub,2013-02-02 16:19:00,
2013-02-02 11:20:00,14.9,-15.3,30.25,SE,135,7.0,11.0,24,0.00,,,0.00,meteohub,2013-02-02 16:20:00,
2013-02-02 11:23:00,14.9,-14.6,30.25,West,270,8.0,11.0,25,0.00,,,0.00,meteohub,2013-02-02 16:23:00,
2013-02-02 11:24:00,14.9,-14.6,30.25,WSW,248,9.0,11.0,25,0.00,,,0.00,meteohub,2013-02-02 16:24:00,
2013-02-02 11:26:00,15.1,-14.4,30.25,South,180,9.0,11.0,25,0.00,,,0.00,meteohub,2013-02-02 16:26:00,
2013-02-02 11:28:00,15.3,-13.5,30.25,WSW,248,4.0,11.0,26,0.00,,,0.00,meteohub,2013-02-02 16:28:00,
2013-02-02 11:29:00,15.3,-13.5,30.25,WSW,248,4.0,11.0,26,0.00,,,0.00,meteohub,2013-02-02 16:29:00,
2013-02-02 11:30:00,15.6,-13.2,30.25,WSW,248,6.0,11.0,26,0.00,,,0.00,meteohub,2013-02-02 16:30:00,
2013-02-02 11:31:00,15.6,-13.2,30.25,WSW,248,6.0,11.0,26,0.00,,,0.00,meteohub,2013-02-02 16:31:00,
2013-02-02 11:34:00,16.2,-11.9,30.25,NW,315,4.0,11.0,27,0.00,,,0.00,meteohub,2013-02-02 16:34:00,
2013-02-02 11:36:00,16.3,-12.6,30.25,South,180,11.0,11.0,26,0.00,,,0.00,meteohub,2013-02-02 16:36:00,
2013-02-02 11:39:00,16.3,-12.6,30.25,WSW,248,8.0,11.0,26,0.00,,,0.00,meteohub,2013-02-02 16:39:00,
2013-02-02 11:40:00,16.3,-12.6,30.25,West,270,9.0,11.0,26,0.00,,,0.00,meteohub,2013-02-02 16:40:00,
2013-02-02 11:41:00,16.2,-13.5,30.24,South,180,4.0,11.0,25,0.00,,,0.00,meteohub,2013-02-02 16:41:00,
2013-02-02 11:42:00,16.2,-13.5,30.24,WSW,248,7.0,11.0,25,0.00,,,0.00,meteohub,2013-02-02 16:42:00,
2013-02-02 11:45:00,16.0,-13.7,30.24,South,180,8.0,11.0,25,0.00,,,0.00,meteohub,2013-02-02 16:45:00,
2013-02-02 11:46:00,16.0,-13.7,30.24,South,180,8.0,11.0,25,0.00,,,0.00,meteohub,2013-02-02 16:46:00,
2013-02-02 11:47:00,16.3,-13.4,30.24,West,270,3.0,11.0,25,0.00,,,0.00,meteohub,2013-02-02 16:47:00,
2013-02-02 11:48:00,16.3,-12.6,30.24,SE,135,3.0,11.0,26,0.00,,,0.00,meteohub,2013-02-02 16:48:00,
2013-02-02 11:50:00,16.5,-12.5,30.24,WSW,248,2.0,11.0,26,0.00,,,0.00,meteohub,2013-02-02 16:50:00,
2013-02-02 11:52:00,16.5,-12.5,30.24,SE,135,4.0,11.0,26,0.00,,,0.00,meteohub,2013-02-02 16:52:00,
2013-02-02 11:53:00,16.3,-12.6,30.23,WSW,248,7.0,11.0,26,0.00,,,0.00,meteohub,2013-02-02 16:53:00,
2013-02-02 11:56:00,15.8,-13.7,30.23,WSW,248,8.0,9.0,25,0.00,,,0.00,meteohub,2013-02-02 16:56:00,
2013-02-02 11:58:00,15.6,-13.2,30.23,WSW,248,9.0,9.0,26,0.00,,,0.00,meteohub,2013-02-02 16:58:00,
2013-02-02 12:00:00,15.4,-13.4,30.23,South,180,8.0,10.0,26,0.00,,,0.00,meteohub,2013-02-02 17:00:00,
2013-02-02 12:01:00,15.4,-13.4,30.23,South,180,8.0,10.0,26,0.00,,,0.00,meteohub,2013-02-02 17:01:00,
2013-02-02 12:03:00,15.3,-12.8,30.22,NE,45,8.0,10.0,27,0.00,,,0.00,meteohub,2013-02-02 17:03:00,
2013-02-02 12:05:00,15.3,-12.1,30.22,WSW,248,6.0,10.0,28,0.00,,,0.00,meteohub,2013-02-02 17:05:00,
2013-02-02 12:06:00,15.4,-11.9,30.22,WSW,248,5.0,10.0,28,0.00,,,0.00,meteohub,2013-02-02 17:06:00,
2013-02-02 12:08:00,15.4,-11.2,30.23,SE,135,7.0,10.0,29,0.00,,,0.00,meteohub,2013-02-02 17:08:00,
2013-02-02 12:09:00,15.4,-11.2,30.23,SE,135,7.0,10.0,29,0.00,,,0.00,meteohub,2013-02-02 17:09:00,
2013-02-02 12:10:00,15.6,-11.0,30.22,WSW,248,8.0,10.0,29,0.00,,,0.00,meteohub,2013-02-02 17:10:00,
2013-02-02 12:12:00,15.8,-10.8,30.22,West,270,8.0,10.0,29,0.00,,,0.00,meteohub,2013-02-02 17:12:00,
2013-02-02 12:14:00,16.0,-10.7,30.22,South,180,3.0,10.0,29,0.00,,,0.00,meteohub,2013-02-02 17:14:00,
2013-02-02 12:16:00,16.0,-10.7,30.22,West,270,3.0,10.0,29,0.00,,,0.00,meteohub,2013-02-02 17:16:00,
2013-02-02 12:17:00,16.3,-9.8,30.22,South,180,7.0,10.0,30,0.00,,,0.00,meteohub,2013-02-02 17:17:00,
2013-02-02 12:19:00,16.5,-9.6,30.22,WSW,248,9.0,10.0,30,0.00,,,0.00,meteohub,2013-02-02 17:19:00,
2013-02-02 12:20:00,16.5,-9.6,30.21,WSW,248,8.0,9.0,30,0.00,,,0.00,meteohub,2013-02-02 17:20:00,
2013-02-02 12:21:00,16.7,-9.4,30.21,WSW,248,4.0,9.0,30,0.00,,,0.00,meteohub,2013-02-02 17:21:00,
2013-02-02 12:22:00,16.9,-9.9,30.21,WSW,248,7.0,9.0,29,0.00,,,0.00,meteohub,2013-02-02 17:22:00,
2013-02-02 12:25:00,17.1,-9.8,30.21,WSW,248,6.0,9.0,29,0.00,,,0.00,meteohub,2013-02-02 17:25:00,
2013-02-02 12:26:00,17.2,-9.6,30.21,WSW,248,5.0,9.0,29,0.00,,,0.00,meteohub,2013-02-02 17:26:00,
2013-02-02 12:27:00,17.6,-9.2,30.20,West,270,4.0,9.0,29,0.00,,,0.00,meteohub,2013-02-02 17:27:00,
2013-02-02 12:29:00,17.8,-9.0,30.20,SE,135,6.0,9.0,29,0.00,,,0.00,meteohub,2013-02-02 17:29:00,
2013-02-02 12:30:00,18.0,-8.9,30.20,South,180,4.0,9.0,29,0.00,,,0.00,meteohub,2013-02-02 17:30:00,
2013-02-02 12:34:00,18.0,-9.6,30.20,South,180,4.0,9.0,28,0.00,,,0.00,meteohub,2013-02-02 17:34:00,
2013-02-02 12:36:00,18.0,-9.6,30.20,South,180,4.0,8.0,28,0.00,,,0.00,meteohub,2013-02-02 17:36:00,
2013-02-02 12:37:00,18.1,-9.6,30.20,SE,135,4.0,8.0,28,0.00,,,0.00,meteohub,2013-02-02 17:37:00,
2013-02-02 12:39:00,18.1,-10.3,30.19,South,180,5.0,8.0,27,0.00,,,0.00,meteohub,2013-02-02 17:39:00,
2013-02-02 12:40:00,18.1,-10.3,30.19,South,180,5.0,8.0,27,0.00,,,0.00,meteohub,2013-02-02 17:40:00,
2013-02-02 12:42:00,18.1,-10.3,30.19,South,180,3.0,6.0,27,0.00,,,0.00,meteohub,2013-02-02 17:42:00,
2013-02-02 12:45:00,17.6,-11.4,30.19,SE,135,8.0,13.0,26,0.00,,,0.00,meteohub,2013-02-02 17:45:00,
2013-02-02 12:46:00,17.6,-11.4,30.19,SE,135,8.0,13.0,26,0.00,,,0.00,meteohub,2013-02-02 17:46:00,
2013-02-02 12:47:00,17.4,-11.6,30.19,WSW,248,7.0,13.0,26,0.00,,,0.00,meteohub,2013-02-02 17:47:00,
2013-02-02 12:51:00,17.8,-9.8,30.19,SE,135,5.0,13.0,28,0.00,,,0.00,meteohub,2013-02-02 17:51:00,
2013-02-02 12:52:00,17.8,-9.8,30.19,WSW,248,8.0,13.0,28,0.00,,,0.00,meteohub,2013-02-02 17:52:00,
2013-02-02 12:53:00,17.8,-9.8,30.19,West,270,11.0,13.0,28,0.00,,,0.00,meteohub,2013-02-02 17:53:00,
2013-02-02 12:54:00,17.6,-10.7,30.19,South,180,9.0,13.0,27,0.00,,,0.00,meteohub,2013-02-02 17:54:00,
2013-02-02 12:57:00,18.0,-9.6,30.18,SE,135,7.0,13.0,28,0.00,,,0.00,meteohub,2013-02-02 17:57:00,
2013-02-02 12:58:00,18.1,-9.6,30.18,SE,135,4.0,13.0,28,0.00,,,0.00,meteohub,2013-02-02 17:58:00,
2013-02-02 12:59:00,18.5,-8.5,30.18,East,90,5.0,13.0,29,0.00,,,0.00,meteohub,2013-02-02 17:59:00,
2013-02-02 13:03:00,18.5,-9.2,30.18,South,180,8.0,11.0,28,0.00,,,0.00,meteohub,2013-02-02 18:03:00,
2013-02-02 13:05:00,18.5,-9.9,30.18,South,180,8.0,11.0,27,0.00,,,0.00,meteohub,2013-02-02 18:05:00,
2013-02-02 13:08:00,18.5,-9.2,30.18,South,180,6.0,11.0,28,0.00,,,0.00,meteohub,2013-02-02 18:08:00,
2013-02-02 13:09:00,18.7,-9.0,30.17,SE,135,4.0,11.0,28,0.00,,,0.00,meteohub,2013-02-02 18:09:00,
2013-02-02 13:10:00,18.5,-9.2,30.18,WSW,248,10.0,10.0,28,0.00,,,0.00,meteohub,2013-02-02 18:10:00,
2013-02-02 13:14:00,18.3,-10.1,30.18,WSW,248,7.0,8.0,27,0.00,,,0.00,meteohub,2013-02-02 18:14:00,
2013-02-02 13:15:00,18.3,-10.1,30.17,SE,135,3.0,10.0,27,0.00,,,0.00,meteohub,2013-02-02 18:15:00,
2013-02-02 13:19:00,18.0,-11.2,30.17,South,180,4.0,10.0,26,0.00,,,0.00,meteohub,2013-02-02 18:19:00,
2013-02-02 13:20:00,18.0,-10.5,30.17,South,180,8.0,10.0,27,0.00,,,0.00,meteohub,2013-02-02 18:20:00,
2013-02-02 13:21:00,18.0,-10.5,30.17,South,180,8.0,10.0,27,0.00,,,0.00,meteohub,2013-02-02 18:21:00,
2013-02-02 13:24:00,18.0,-9.6,30.17,South,180,5.0,10.0,28,0.00,,,0.00,meteohub,2013-02-02 18:24:00,
2013-02-02 13:25:00,18.0,-9.6,30.17,South,180,4.0,10.0,28,0.00,,,0.00,meteohub,2013-02-02 18:25:00,
2013-02-02 13:26:00,18.0,-9.6,30.17,South,180,10.0,10.0,28,0.00,,,0.00,meteohub,2013-02-02 18:26:00,
2013-02-02 13:29:00,18.3,-8.7,30.17,WSW,248,7.0,10.0,29,0.00,,,0.00,meteohub,2013-02-02 18:29:00,
2013-02-02 13:30:00,18.5,-8.5,30.17,North,0,8.0,10.0,29,0.00,,,0.00,meteohub,2013-02-02 18:30:00,
2013-02-02 13:31:00,18.5,-8.5,30.16,North,0,8.0,10.0,29,0.00,,,0.00,meteohub,2013-02-02 18:31:00,
2013-02-02 13:35:00,19.0,-8.7,30.16,SE,135,5.0,10.0,28,0.00,,,0.00,meteohub,2013-02-02 18:35:00,
2013-02-02 13:36:00,19.0,-8.7,30.16,WSW,248,2.0,10.0,28,0.00,,,0.00,meteohub,2013-02-02 18:36:00,
2013-02-02 13:40:00,19.4,-9.2,30.16,West,270,9.0,10.0,27,0.00,,,0.00,meteohub,2013-02-02 18:40:00,
2013-02-02 13:41:00,19.4,-9.2,30.16,WSW,248,4.0,10.0,27,0.00,,,0.00,meteohub,2013-02-02 18:41:00,
2013-02-02 13:42:00,19.4,-9.2,30.16,South,180,5.0,10.0,27,0.00,,,0.00,meteohub,2013-02-02 18:42:00,
2013-02-02 13:46:00,19.6,-9.0,30.15,WSW,248,4.0,10.0,27,0.00,,,0.00,meteohub,2013-02-02 18:46:00,
2013-02-02 13:47:00,19.8,-8.9,30.15,South,180,4.0,10.0,27,0.00,,,0.00,meteohub,2013-02-02 18:47:00,
2013-02-02 13:48:00,19.8,-8.9,30.15,West,270,2.0,10.0,27,0.00,,,0.00,meteohub,2013-02-02 18:48:00,
2013-02-02 13:51:00,19.8,-9.6,30.15,South,180,3.0,9.0,26,0.00,,,0.00,meteohub,2013-02-02 18:51:00,
2013-02-02 13:52:00,19.8,-8.9,30.15,SE,135,2.0,9.0,27,0.00,,,0.00,meteohub,2013-02-02 18:52:00,
2013-02-02 13:53:00,19.9,-8.7,30.15,South,180,4.0,9.0,27,0.00,,,0.00,meteohub,2013-02-02 18:53:00,
2013-02-02 13:57:00,20.3,-7.6,30.14,East,90,6.0,9.0,28,0.00,,,0.00,meteohub,2013-02-02 18:57:00,
2013-02-02 13:58:00,20.1,-8.5,30.14,East,90,5.0,9.0,27,0.00,,,0.00,meteohub,2013-02-02 18:58:00,
2013-02-02 13:59:00,19.9,-8.7,30.14,South,180,8.0,9.0,27,0.00,,,0.00,meteohub,2013-02-02 18:59:00,
2013-02-02 14:02:00,19.6,-9.8,30.14,South,180,6.0,8.0,26,0.00,,,0.00,meteohub,2013-02-02 19:02:00,
2013-02-02 14:03:00,19.6,-9.0,30.14,SE,135,5.0,8.0,27,0.00,,,0.00,meteohub,2013-02-02 19:03:00,
2013-02-02 14:04:00,19.6,-8.3,30.14,South,180,3.0,8.0,28,0.00,,,0.00,meteohub,2013-02-02 19:04:00,
2013-02-02 14:05:00,19.6,-8.3,30.14,South,180,3.0,8.0,28,0.00,,,0.00,meteohub,2013-02-02 19:05:00,
2013-02-02 14:07:00,19.6,-8.3,30.14,SSE,158,4.0,8.0,28,0.00,,,0.00,meteohub,2013-02-02 19:07:00,
2013-02-02 14:09:00,19.6,-8.3,30.14,South,180,5.0,8.0,28,0.00,,,0.00,meteohub,2013-02-02 19:09:00,
2013-02-02 14:10:00,19.6,-7.6,30.14,SE,135,8.0,11.0,29,0.00,,,0.00,meteohub,2013-02-02 19:10:00,
2013-02-02 14:13:00,19.6,-8.3,30.14,WSW,248,5.0,11.0,28,0.00,,,0.00,meteohub,2013-02-02 19:13:00,
2013-02-02 14:15:00,19.4,-8.3,30.14,WSW,248,7.0,11.0,28,0.00,,,0.00,meteohub,2013-02-02 19:15:00,
2013-02-02 14:16:00,19.4,-8.3,30.14,WSW,248,7.0,11.0,28,0.00,,,0.00,meteohub,2013-02-02 19:16:00,
2013-02-02 14:19:00,19.2,-7.8,30.14,WSW,248,5.0,11.0,29,0.00,,,0.00,meteohub,2013-02-02 19:19:00,
2013-02-02 14:20:00,19.2,-7.8,30.14,South,180,6.0,11.0,29,0.00,,,0.00,meteohub,2013-02-02 19:20:00,
2013-02-02 14:21:00,19.2,-7.8,30.14,South,180,6.0,11.0,29,0.00,,,0.00,meteohub,2013-02-02 19:21:00,
2013-02-02 14:24:00,19.4,-7.1,30.14,WSW,248,8.0,11.0,30,0.00,,,0.00,meteohub,2013-02-02 19:24:00,
2013-02-02 14:25:00,19.4,-7.6,30.13,South,180,8.0,9.0,29,0.00,,,0.00,meteohub,2013-02-02 19:25:00,
2013-02-02 14:26:00,19.4,-7.6,30.14,West,270,4.0,9.0,29,0.00,,,0.00,meteohub,2013-02-02 19:26:00,
2013-02-02 14:30:00,19.9,-6.5,30.13,South,180,2.0,9.0,30,0.00,,,0.00,meteohub,2013-02-02 19:30:00,
2013-02-02 14:31:00,19.9,-6.5,30.13,East,90,5.0,11.0,30,0.00,,,0.00,meteohub,2013-02-02 19:31:00,
2013-02-02 14:32:00,20.1,-6.3,30.13,South,180,9.0,11.0,30,0.00,,,0.00,meteohub,2013-02-02 19:32:00,
2013-02-02 14:35:00,20.3,-6.9,30.13,East,90,2.0,11.0,29,0.00,,,0.00,meteohub,2013-02-02 19:35:00,
2013-02-02 14:36:00,20.5,-7.4,30.13,West,270,8.0,11.0,28,0.00,,,0.00,meteohub,2013-02-02 19:36:00,
2013-02-02 14:37:00,20.5,-7.4,30.13,West,270,8.0,11.0,28,0.00,,,0.00,meteohub,2013-02-02 19:37:00,
2013-02-02 14:40:00,20.1,-9.2,30.13,NW,315,8.0,9.0,26,0.00,,,0.00,meteohub,2013-02-02 19:40:00,
2013-02-02 14:41:00,20.1,-9.2,30.13,SSE,158,7.0,9.0,26,0.00,,,0.00,meteohub,2013-02-02 19:41:00,
2013-02-02 14:42:00,20.1,-8.5,30.13,South,180,8.0,9.0,27,0.00,,,0.00,meteohub,2013-02-02 19:42:00,
2013-02-02 14:45:00,19.9,-8.7,30.13,SE,135,10.0,10.0,27,0.00,,,0.00,meteohub,2013-02-02 19:45:00,
2013-02-02 14:47:00,19.9,-8.0,30.13,WSW,248,5.0,10.0,28,0.00,,,0.00,meteohub,2013-02-02 19:47:00,
2013-02-02 14:48:00,19.9,-8.0,30.13,South,180,5.0,10.0,28,0.00,,,0.00,meteohub,2013-02-02 19:48:00,
2013-02-02 14:49:00,19.9,-8.0,30.13,South,180,5.0,10.0,28,0.00,,,0.00,meteohub,2013-02-02 19:49:00,
2013-02-02 14:51:00,19.8,-7.4,30.13,West,270,7.0,10.0,29,0.00,,,0.00,meteohub,2013-02-02 19:51:00,
2013-02-02 14:52:00,19.9,-7.2,30.12,WSW,248,4.0,10.0,29,0.00,,,0.00,meteohub,2013-02-02 19:52:00,
2013-02-02 14:54:00,19.9,-6.5,30.12,South,180,5.0,10.0,30,0.00,,,0.00,meteohub,2013-02-02 19:54:00,
2013-02-02 14:56:00,19.9,-6.5,30.12,West,270,3.0,10.0,30,0.00,,,0.00,meteohub,2013-02-02 19:56:00,
2013-02-02 14:57:00,19.9,-6.5,30.12,West,270,3.0,10.0,30,0.00,,,0.00,meteohub,2013-02-02 19:57:00,
2013-02-02 14:58:00,20.1,-6.3,30.12,WSW,248,3.0,10.0,30,0.00,,,0.00,meteohub,2013-02-02 19:58:00,
2013-02-02 14:59:00,20.1,-5.6,30.12,WSW,248,3.0,10.0,31,0.00,,,0.00,meteohub,2013-02-02 19:59:00,
2013-02-02 15:01:00,20.1,-5.6,30.12,West,270,4.0,10.0,31,0.00,,,0.00,meteohub,2013-02-02 20:01:00,
2013-02-02 15:03:00,19.9,-5.8,30.13,WSW,248,8.0,10.0,31,0.00,,,0.00,meteohub,2013-02-02 20:03:00,
2013-02-02 15:05:00,19.8,-6.7,30.12,WSW,248,4.0,10.0,30,0.00,,,0.00,meteohub,2013-02-02 20:05:00,
2013-02-02 15:08:00,19.6,-6.9,30.13,South,180,6.0,10.0,30,0.00,,,0.00,meteohub,2013-02-02 20:08:00,
2013-02-02 15:10:00,19.6,-6.2,30.12,SE,135,5.0,11.0,31,0.00,,,0.00,meteohub,2013-02-02 20:10:00,
2013-02-02 15:13:00,19.6,-5.4,30.12,WSW,248,7.0,11.0,32,0.00,,,0.00,meteohub,2013-02-02 20:13:00,
2013-02-02 15:17:00,19.6,-5.4,30.12,SE,135,5.0,11.0,32,0.00,,,0.00,meteohub,2013-02-02 20:17:00,
2013-02-02 15:18:00,19.8,-4.7,30.12,WSW,248,4.0,11.0,33,0.00,,,0.00,meteohub,2013-02-02 20:18:00,
2013-02-02 15:19:00,19.8,-4.7,30.12,South,180,2.0,11.0,33,0.00,,,0.00,meteohub,2013-02-02 20:19:00,
2013-02-02 15:22:00,19.9,-4.0,30.12,WSW,248,9.0,11.0,34,0.00,,,0.00,meteohub,2013-02-02 20:22:00,
2013-02-02 15:24:00,19.9,-4.0,30.12,WSW,248,8.0,11.0,34,0.00,,,0.00,meteohub,2013-02-02 20:24:00,
2013-02-02 15:25:00,19.9,-4.0,30.12,WSW,248,4.0,9.0,34,0.00,,,0.00,meteohub,2013-02-02 20:25:00,
2013-02-02 15:28:00,19.9,-4.0,30.12,South,180,4.0,9.0,34,0.00,,,0.00,meteohub,2013-02-02 20:28:00,
2013-02-02 15:29:00,20.1,-3.8,30.12,SE,135,4.0,9.0,34,0.00,,,0.00,meteohub,2013-02-02 20:29:00,
2013-02-02 15:30:00,20.1,-3.8,30.12,WSW,248,4.0,9.0,34,0.00,,,0.00,meteohub,2013-02-02 20:30:00,
2013-02-02 15:35:00,20.3,-3.6,30.11,South,180,3.0,9.0,34,0.00,,,0.00,meteohub,2013-02-02 20:35:00,
2013-02-02 15:36:00,20.3,-3.6,30.11,WSW,248,4.0,9.0,34,0.00,,,0.00,meteohub,2013-02-02 20:36:00,
2013-02-02 15:40:00,20.5,-2.9,30.12,WSW,248,6.0,8.0,35,0.00,,,0.00,meteohub,2013-02-02 20:40:00,
2013-02-02 15:41:00,20.5,-2.9,30.11,WSW,248,7.0,8.0,35,0.00,,,0.00,meteohub,2013-02-02 20:41:00,
2013-02-02 15:42:00,20.5,-2.9,30.11,WSW,248,7.0,8.0,35,0.00,,,0.00,meteohub,2013-02-02 20:42:00,
2013-02-02 15:45:00,20.3,-2.9,30.12,South,180,7.0,8.0,35,0.00,,,0.00,meteohub,2013-02-02 20:45:00,
2013-02-02 15:46:00,20.3,-2.9,30.12,South,180,7.0,8.0,35,0.00,,,0.00,meteohub,2013-02-02 20:46:00,
2013-02-02 15:47:00,20.3,-2.9,30.12,South,180,4.0,8.0,35,0.00,,,0.00,meteohub,2013-02-02 20:47:00,
2013-02-02 15:51:00,20.5,-2.2,30.12,WSW,248,4.0,8.0,36,0.00,,,0.00,meteohub,2013-02-02 20:51:00,
2013-02-02 15:52:00,20.3,-2.4,30.11,WSW,248,3.0,8.0,36,0.00,,,0.00,meteohub,2013-02-02 20:52:00,
2013-02-02 15:53:00,20.3,-2.4,30.11,WSW,248,4.0,8.0,36,0.00,,,0.00,meteohub,2013-02-02 20:53:00,
2013-02-02 15:56:00,20.3,-2.4,30.11,South,180,6.0,7.0,36,0.00,,,0.00,meteohub,2013-02-02 20:56:00,
2013-02-02 15:58:00,20.1,-2.0,30.11,South,180,7.0,7.0,37,0.00,,,0.00,meteohub,2013-02-02 20:58:00,
2013-02-02 16:01:00,20.1,-2.0,30.11,WSW,248,4.0,8.0,37,0.00,,,0.00,meteohub,2013-02-02 21:01:00,
2013-02-02 16:03:00,20.1,-1.5,30.11,SE,135,2.0,8.0,38,0.00,,,0.00,meteohub,2013-02-02 21:03:00,
2013-02-02 16:04:00,20.1,-1.5,30.11,SE,135,2.0,8.0,38,0.00,,,0.00,meteohub,2013-02-02 21:04:00,
2013-02-02 16:06:00,20.1,-0.9,30.11,West,270,2.0,8.0,39,0.00,,,0.00,meteohub,2013-02-02 21:06:00,
2013-02-02 16:07:00,20.1,-0.9,30.11,West,270,2.0,8.0,39,0.00,,,0.00,meteohub,2013-02-02 21:07:00,
2013-02-02 16:08:00,20.1,-0.9,30.11,South,180,4.0,8.0,39,0.00,,,0.00,meteohub,2013-02-02 21:08:00,
2013-02-02 16:09:00,20.1,-0.9,30.11,South,180,3.0,8.0,39,0.00,,,0.00,meteohub,2013-02-02 21:09:00,
2013-02-02 16:12:00,19.9,-1.1,30.11,WSW,248,8.0,8.0,39,0.00,,,0.00,meteohub,2013-02-02 21:12:00,
2013-02-02 16:13:00,19.9,-1.1,30.10,South,180,8.0,8.0,39,0.00,,,0.00,meteohub,2013-02-02 21:13:00,
2013-02-02 16:14:00,19.9,-1.1,30.10,WSW,248,4.0,8.0,39,0.00,,,0.00,meteohub,2013-02-02 21:14:00,
2013-02-02 16:17:00,19.8,-0.6,30.10,South,180,7.0,8.0,40,0.00,,,0.00,meteohub,2013-02-02 21:17:00,
2013-02-02 16:19:00,19.8,-0.6,30.11,WSW,248,3.0,8.0,40,0.00,,,0.00,meteohub,2013-02-02 21:19:00,
2013-02-02 16:20:00,19.9,-0.6,30.11,WSW,248,2.0,8.0,40,0.00,,,0.00,meteohub,2013-02-02 21:20:00,
2013-02-02 16:22:00,19.8,-0.6,30.10,WSW,248,7.0,8.0,40,0.00,,,0.00,meteohub,2013-02-02 21:22:00,
2013-02-02 16:23:00,19.8,-0.6,30.10,West,270,6.0,8.0,40,0.00,,,0.00,meteohub,2013-02-02 21:23:00,
2013-02-02 16:25:00,19.8,-0.2,30.10,WSW,248,3.0,8.0,41,0.00,,,0.00,meteohub,2013-02-02 21:25:00,
2013-02-02 16:26:00,19.6,-0.2,30.10,WSW,248,5.0,8.0,41,0.00,,,0.00,meteohub,2013-02-02 21:26:00,
2013-02-02 16:28:00,19.6,-0.2,30.10,WSW,248,4.0,8.0,41,0.00,,,0.00,meteohub,2013-02-02 21:28:00,
2013-02-02 16:30:00,19.6,0.1,30.10,SE,135,4.0,8.0,42,0.00,,,0.00,meteohub,2013-02-02 21:30:00,
2013-02-02 16:32:00,19.6,0.1,30.10,South,180,4.0,8.0,42,0.00,,,0.00,meteohub,2013-02-02 21:32:00,
2013-02-02 16:33:00,19.8,0.3,30.10,WSW,248,4.0,8.0,42,0.00,,,0.00,meteohub,2013-02-02 21:33:00,
2013-02-02 16:35:00,19.6,0.1,30.10,South,180,3.0,8.0,42,0.00,,,0.00,meteohub,2013-02-02 21:35:00,
2013-02-02 16:36:00,19.8,0.3,30.11,WSW,248,5.0,8.0,42,0.00,,,0.00,meteohub,2013-02-02 21:36:00,
2013-02-02 16:37:00,19.6,0.7,30.11,South,180,7.0,8.0,43,0.00,,,0.00,meteohub,2013-02-02 21:37:00,
2013-02-02 16:40:00,19.6,0.7,30.10,WSW,248,8.0,9.0,43,0.00,,,0.00,meteohub,2013-02-02 21:40:00,
2013-02-02 16:41:00,19.6,0.7,30.11,WSW,248,8.0,9.0,43,0.00,,,0.00,meteohub,2013-02-02 21:41:00,
2013-02-02 16:42:00,19.6,0.7,30.11,South,180,5.0,9.0,43,0.00,,,0.00,meteohub,2013-02-02 21:42:00,
2013-02-02 16:45:00,19.6,0.7,30.11,SSW,203,4.0,9.0,43,0.00,,,0.00,meteohub,2013-02-02 21:45:00,
2013-02-02 16:46:00,19.6,0.7,30.11,SSW,203,4.0,9.0,43,0.00,,,0.00,meteohub,2013-02-02 21:46:00,
2013-02-02 16:47:00,19.6,0.7,30.11,WSW,248,4.0,9.0,43,0.00,,,0.00,meteohub,2013-02-02 21:47:00,
2013-02-02 16:50:00,19.6,1.2,30.11,WSW,248,5.0,9.0,44,0.00,,,0.00,meteohub,2013-02-02 21:50:00,
2013-02-02 16:51:00,19.6,1.2,30.11,West,270,6.0,9.0,44,0.00,,,0.00,meteohub,2013-02-02 21:51:00,
2013-02-02 16:52:00,19.6,1.2,30.11,WSW,248,4.0,9.0,44,0.00,,,0.00,meteohub,2013-02-02 21:52:00,
2013-02-02 16:55:00,19.6,1.2,30.11,WSW,248,4.0,8.0,44,0.00,,,0.00,meteohub,2013-02-02 21:55:00,
2013-02-02 16:56:00,19.6,1.2,30.11,WSW,248,4.0,8.0,44,0.00,,,0.00,meteohub,2013-02-02 21:56:00,
2013-02-02 16:57:00,19.6,1.2,30.11,WSW,248,4.0,8.0,44,0.00,,,0.00,meteohub,2013-02-02 21:57:00,
2013-02-02 17:01:00,19.6,1.8,30.11,South,180,2.0,6.0,45,0.00,,,0.00,meteohub,2013-02-02 22:01:00,
2013-02-02 17:02:00,19.6,1.8,30.11,West,270,2.0,6.0,45,0.00,,,0.00,meteohub,2013-02-02 22:02:00,
2013-02-02 17:03:00,19.6,1.8,30.11,WSW,248,3.0,6.0,45,0.00,,,0.00,meteohub,2013-02-02 22:03:00,
2013-02-02 17:06:00,19.6,1.8,30.11,WSW,248,2.0,6.0,45,0.00,,,0.00,meteohub,2013-02-02 22:06:00,
2013-02-02 17:08:00,19.6,1.8,30.11,WSW,248,3.0,6.0,45,0.00,,,0.00,meteohub,2013-02-02 22:08:00,
2013-02-02 17:10:00,19.6,1.8,30.11,South,180,4.0,6.0,45,0.00,,,0.00,meteohub,2013-02-02 22:10:00,
2013-02-02 17:12:00,19.6,1.8,30.11,WSW,248,4.0,6.0,45,0.00,,,0.00,meteohub,2013-02-02 22:12:00,
2013-02-02 17:13:00,19.6,2.1,30.11,WSW,248,4.0,6.0,46,0.00,,,0.00,meteohub,2013-02-02 22:13:00,
2013-02-02 17:15:00,19.6,2.1,30.11,South,180,2.0,7.0,46,0.00,,,0.00,meteohub,2013-02-02 22:15:00,
2013-02-02 17:18:00,19.6,2.1,30.11,WSW,248,2.0,7.0,46,0.00,,,0.00,meteohub,2013-02-02 22:18:00,
2013-02-02 17:19:00,19.6,2.1,30.11,WSW,248,3.0,7.0,46,0.00,,,0.00,meteohub,2013-02-02 22:19:00,
2013-02-02 17:21:00,19.6,2.1,30.11,South,180,3.0,7.0,46,0.00,,,0.00,meteohub,2013-02-02 22:21:00,
2013-02-02 17:23:00,19.6,2.1,30.11,West,270,2.0,7.0,46,0.00,,,0.00,meteohub,2013-02-02 22:23:00,
2013-02-02 17:24:00,19.6,2.7,30.11,South,180,4.0,7.0,47,0.00,,,0.00,meteohub,2013-02-02 22:24:00,
2013-02-02 17:26:00,19.6,2.7,30.11,WSW,248,2.0,6.0,47,0.00,,,0.00,meteohub,2013-02-02 22:26:00,
2013-02-02 17:29:00,19.6,2.7,30.11,WSW,248,2.0,6.0,47,0.00,,,0.00,meteohub,2013-02-02 22:29:00,
2013-02-02 17:30:00,19.6,2.7,30.11,WSW,248,2.0,6.0,47,0.00,,,0.00,meteohub,2013-02-02 22:30:00,
2013-02-02 17:32:00,19.6,2.7,30.11,WSW,248,1.0,5.0,47,0.00,,,0.00,meteohub,2013-02-02 22:32:00,
2013-02-02 17:35:00,19.4,2.5,30.11,SE,135,3.0,5.0,47,0.00,,,0.00,meteohub,2013-02-02 22:35:00,
2013-02-02 17:36:00,19.4,2.5,30.10,SE,135,2.0,4.0,47,0.00,,,0.00,meteohub,2013-02-02 22:36:00,
2013-02-02 17:37:00,19.4,2.5,30.11,South,180,4.0,4.0,47,0.00,,,0.00,meteohub,2013-02-02 22:37:00,
2013-02-02 17:40:00,19.4,2.5,30.11,WSW,248,2.0,4.0,47,0.00,,,0.00,meteohub,2013-02-02 22:40:00,
2013-02-02 17:41:00,19.4,2.5,30.11,WSW,248,2.0,4.0,47,0.00,,,0.00,meteohub,2013-02-02 22:41:00,
2013-02-02 17:42:00,19.4,2.5,30.10,South,180,2.0,4.0,47,0.00,,,0.00,meteohub,2013-02-02 22:42:00,
2013-02-02 17:46:00,19.4,2.8,30.11,South,180,5.0,5.0,48,0.00,,,0.00,meteohub,2013-02-02 22:46:00,
2013-02-02 17:47:00,19.4,2.8,30.11,South,180,5.0,5.0,48,0.00,,,0.00,meteohub,2013-02-02 22:47:00,
2013-02-02 17:48:00,19.4,2.8,30.11,WSW,248,6.0,6.0,48,0.00,,,0.00,meteohub,2013-02-02 22:48:00,
2013-02-02 17:52:00,19.4,2.8,30.11,WSW,248,2.0,6.0,48,0.00,,,0.00,meteohub,2013-02-02 22:52:00,
2013-02-02 17:53:00,19.4,2.8,30.11,South,180,2.0,6.0,48,0.00,,,0.00,meteohub,2013-02-02 22:53:00,
2013-02-02 17:57:00,19.2,2.7,30.11,WSW,248,4.0,6.0,48,0.00,,,0.00,meteohub,2013-02-02 22:57:00,
2013-02-02 17:58:00,19.2,2.7,30.11,SE,135,4.0,6.0,48,0.00,,,0.00,meteohub,2013-02-02 22:58:00,
2013-02-02 18:02:00,19.2,2.7,30.11,South,180,4.0,6.0,48,0.00,,,0.00,meteohub,2013-02-02 23:02:00,
2013-02-02 18:03:00,19.2,2.7,30.11,West,270,3.0,6.0,48,0.00,,,0.00,meteohub,2013-02-02 23:03:00,
2013-02-02 18:05:00,19.2,3.2,30.11,South,180,1.0,6.0,49,0.00,,,0.00,meteohub,2013-02-02 23:05:00,
2013-02-02 18:07:00,19.2,3.2,30.11,WSW,248,2.0,5.0,49,0.00,,,0.00,meteohub,2013-02-02 23:07:00,
2013-02-02 18:09:00,19.2,3.2,30.12,WSW,248,4.0,5.0,49,0.00,,,0.00,meteohub,2013-02-02 23:09:00,
2013-02-02 18:10:00,19.2,3.2,30.12,WSW,248,4.0,5.0,49,0.00,,,0.00,meteohub,2013-02-02 23:10:00,
2013-02-02 18:15:00,19.4,3.4,30.11,WSW,248,3.0,4.0,49,0.00,,,0.00,meteohub,2013-02-02 23:15:00,
2013-02-02 18:16:00,19.4,3.4,30.11,WSW,248,3.0,4.0,49,0.00,,,0.00,meteohub,2013-02-02 23:16:00,
2013-02-02 18:20:00,19.4,3.4,30.11,WSW,248,3.0,4.0,49,0.00,,,0.00,meteohub,2013-02-02 23:20:00,
2013-02-02 18:21:00,19.4,3.4,30.11,WSW,248,3.0,4.0,49,0.00,,,0.00,meteohub,2013-02-02 23:21:00,
2013-02-02 18:26:00,19.4,3.4,30.12,WSW,248,2.0,4.0,49,0.00,,,0.00,meteohub,2013-02-02 23:26:00,
2013-02-02 18:27:00,19.4,3.4,30.12,WSW,248,3.0,4.0,49,0.00,,,0.00,meteohub,2013-02-02 23:27:00,
2013-02-02 18:32:00,19.4,3.4,30.11,WSW,248,3.0,4.0,49,0.00,,,0.00,meteohub,2013-02-02 23:32:00,
2013-02-02 18:34:00,19.4,3.4,30.12,West,270,2.0,4.0,49,0.00,,,0.00,meteohub,2013-02-02 23:34:00,
2013-02-02 18:37:00,19.4,3.7,30.12,WSW,248,4.0,5.0,50,0.00,,,0.00,meteohub,2013-02-02 23:37:00,
2013-02-02 18:38:00,19.4,3.7,30.12,WSW,248,4.0,5.0,50,0.00,,,0.00,meteohub,2013-02-02 23:38:00,
2013-02-02 18:39:00,19.4,3.7,30.11,WSW,248,4.0,5.0,50,0.00,,,0.00,meteohub,2013-02-02 23:39:00,
2013-02-02 18:43:00,19.4,3.7,30.11,WSW,248,5.0,5.0,50,0.00,,,0.00,meteohub,2013-02-02 23:43:00,
2013-02-02 18:44:00,19.4,3.7,30.11,South,180,2.0,5.0,50,0.00,,,0.00,meteohub,2013-02-02 23:44:00,
2013-02-02 18:45:00,19.4,3.7,30.11,South,180,2.0,5.0,50,0.00,,,0.00,meteohub,2013-02-02 23:45:00,
2013-02-02 18:50:00,19.4,3.7,30.11,WSW,248,2.0,5.0,50,0.00,,,0.00,meteohub,2013-02-02 23:50:00,
2013-02-02 18:51:00,19.4,3.7,30.11,South,180,4.0,5.0,50,0.00,,,0.00,meteohub,2013-02-02 23:51:00,
2013-02-02 18:55:00,19.4,3.7,30.12,WSW,248,2.0,5.0,50,0.00,,,0.00,meteohub,2013-02-02 23:55:00,
2013-02-02 18:56:00,19.4,3.7,30.11,South,180,2.0,5.0,50,0.00,,,0.00,meteohub,2013-02-02 23:56:00,
2013-02-02 18:57:00,19.4,3.7,30.11,WSW,248,2.0,5.0,50,0.00,,,0.00,meteohub,2013-02-02 23:57:00,
2013-02-02 19:00:00,19.4,3.7,30.11,WSW,248,3.0,4.0,50,0.00,,,0.00,meteohub,2013-02-03 00:00:00,
2013-02-02 19:01:00,19.4,3.7,30.11,WSW,248,3.0,4.0,50,0.00,,,0.00,meteohub,2013-02-03 00:01:00,
2013-02-02 19:02:00,19.4,3.7,30.11,WSW,248,3.0,4.0,50,0.00,,,0.00,meteohub,2013-02-03 00:02:00,
2013-02-02 19:05:00,19.4,3.7,30.11,WSW,248,3.0,4.0,50,0.00,,,0.00,meteohub,2013-02-03 00:05:00,
2013-02-02 19:06:00,19.4,3.7,30.11,WSW,248,3.0,4.0,50,0.00,,,0.00,meteohub,2013-02-03 00:06:00,
2013-02-02 19:08:00,19.4,3.7,30.11,South,180,2.0,4.0,50,0.00,,,0.00,meteohub,2013-02-03 00:08:00,
2013-02-02 19:11:00,19.4,3.7,30.11,WSW,248,2.0,3.0,50,0.00,,,0.00,meteohub,2013-02-03 00:11:00,
2013-02-02 19:12:00,19.4,3.7,30.11,WSW,248,4.0,4.0,50,0.00,,,0.00,meteohub,2013-02-03 00:12:00,
2013-02-02 19:13:00,19.4,3.7,30.11,WSW,248,3.0,3.0,50,0.00,,,0.00,meteohub,2013-02-03 00:13:00,
2013-02-02 19:16:00,19.4,3.7,30.12,South,180,2.0,4.0,50,0.00,,,0.00,meteohub,2013-02-03 00:16:00,
2013-02-02 19:17:00,19.4,3.7,30.12,South,180,2.0,4.0,50,0.00,,,0.00,meteohub,2013-02-03 00:17:00,
2013-02-02 19:19:00,19.4,3.7,30.11,WSW,248,3.0,4.0,50,0.00,,,0.00,meteohub,2013-02-03 00:19:00,
2013-02-02 19:21:00,19.4,4.3,30.11,SE,135,2.0,4.0,51,0.00,,,0.00,meteohub,2013-02-03 00:21:00,
2013-02-02 19:22:00,19.4,4.3,30.12,South,180,2.0,4.0,51,0.00,,,0.00,meteohub,2013-02-03 00:22:00,
2013-02-02 19:25:00,19.4,4.3,30.12,WSW,248,4.0,4.0,51,0.00,,,0.00,meteohub,2013-02-03 00:25:00,
2013-02-02 19:27:00,19.4,4.3,30.12,WSW,248,2.0,4.0,51,0.00,,,0.00,meteohub,2013-02-03 00:27:00,
2013-02-02 19:28:00,19.4,4.3,30.12,WSW,248,2.0,4.0,51,0.00,,,0.00,meteohub,2013-02-03 00:28:00,
2013-02-02 19:30:00,19.4,4.3,30.11,WSW,248,2.0,6.0,51,0.00,,,0.00,meteohub,2013-02-03 00:30:00,
2013-02-02 19:31:00,19.4,4.3,30.11,South,180,4.0,6.0,51,0.00,,,0.00,meteohub,2013-02-03 00:31:00,
2013-02-02 19:33:00,19.4,4.3,30.11,South,180,4.0,6.0,51,0.00,,,0.00,meteohub,2013-02-03 00:33:00,
2013-02-02 19:34:00,19.4,4.3,30.11,WSW,248,5.0,6.0,51,0.00,,,0.00,meteohub,2013-02-03 00:34:00,
2013-02-02 19:36:00,19.4,4.3,30.11,WSW,248,3.0,6.0,51,0.00,,,0.00,meteohub,2013-02-03 00:36:00,
2013-02-02 19:37:00,19.4,4.3,30.11,WSW,248,3.0,6.0,51,0.00,,,0.00,meteohub,2013-02-03 00:37:00,
2013-02-02 19:39:00,19.6,4.5,30.11,East,90,6.0,6.0,51,0.00,,,0.00,meteohub,2013-02-03 00:39:00,
2013-02-02 19:40:00,19.6,4.5,30.11,East,90,6.0,6.0,51,0.00,,,0.00,meteohub,2013-02-03 00:40:00,
2013-02-02 19:41:00,19.6,4.5,30.11,WSW,248,4.0,6.0,51,0.00,,,0.00,meteohub,2013-02-03 00:41:00,
2013-02-02 19:43:00,19.6,4.5,30.12,WSW,248,4.0,6.0,51,0.00,,,0.00,meteohub,2013-02-03 00:43:00,
2013-02-02 19:45:00,19.6,4.5,30.12,WSW,248,2.0,6.0,51,0.00,,,0.00,meteohub,2013-02-03 00:45:00,
2013-02-02 19:47:00,19.6,4.5,30.12,WSW,248,5.0,6.0,51,0.00,,,0.00,meteohub,2013-02-03 00:47:00,
2013-02-02 19:49:00,19.6,4.5,30.11,WSW,248,2.0,6.0,51,0.00,,,0.00,meteohub,2013-02-03 00:49:00,
2013-02-02 19:50:00,19.6,4.5,30.12,WSW,248,2.0,6.0,51,0.00,,,0.00,meteohub,2013-02-03 00:50:00,
2013-02-02 19:51:00,19.6,4.5,30.11,South,180,2.0,6.0,51,0.00,,,0.00,meteohub,2013-02-03 00:51:00,
2013-02-02 19:52:00,19.6,4.5,30.11,West,270,4.0,6.0,51,0.00,,,0.00,meteohub,2013-02-03 00:52:00,
2013-02-02 19:55:00,19.6,4.5,30.11,West,270,5.0,6.0,51,0.00,,,0.00,meteohub,2013-02-03 00:55:00,
2013-02-02 19:56:00,19.6,4.5,30.12,South,180,3.0,6.0,51,0.00,,,0.00,meteohub,2013-02-03 00:56:00,
2013-02-02 19:57:00,19.6,4.5,30.12,WSW,248,4.0,6.0,51,0.00,,,0.00,meteohub,2013-02-03 00:57:00,
2013-02-02 20:01:00,19.8,4.6,30.12,WSW,248,6.0,6.0,51,0.00,,,0.00,meteohub,2013-02-03 01:01:00,
2013-02-02 20:02:00,19.8,4.6,30.11,WSW,248,6.0,6.0,51,0.00,,,0.00,meteohub,2013-02-03 01:02:00,
2013-02-02 20:03:00,19.8,4.6,30.11,WSW,248,6.0,6.0,51,0.00,,,0.00,meteohub,2013-02-03 01:03:00,
2013-02-02 20:06:00,19.8,4.6,30.11,WSW,248,6.0,6.0,51,0.00,,,0.00,meteohub,2013-02-03 01:06:00,
2013-02-02 20:07:00,19.8,4.6,30.11,WSW,248,6.0,6.0,51,0.00,,,0.00,meteohub,2013-02-03 01:07:00,
2013-02-02 20:08:00,19.8,4.6,30.11,WSW,248,4.0,6.0,51,0.00,,,0.00,meteohub,2013-02-03 01:08:00,
2013-02-02 20:09:00,19.8,5.0,30.11,South,180,9.0,9.0,52,0.00,,,0.00,meteohub,2013-02-03 01:09:00,
2013-02-02 20:12:00,19.8,5.0,30.11,WSW,248,2.0,6.0,52,0.00,,,0.00,meteohub,2013-02-03 01:12:00,
2013-02-02 20:13:00,19.8,5.0,30.11,WSW,248,2.0,6.0,52,0.00,,,0.00,meteohub,2013-02-03 01:13:00,
2013-02-02 20:14:00,19.8,5.0,30.11,WSW,248,2.0,6.0,52,0.00,,,0.00,meteohub,2013-02-03 01:14:00,
2013-02-02 20:18:00,19.8,4.6,30.11,WNW,293,6.0,9.0,51,0.00,,,0.00,meteohub,2013-02-03 01:18:00,
2013-02-02 20:21:00,19.8,4.6,30.11,WSW,248,4.0,9.0,51,0.00,,,0.00,meteohub,2013-02-03 01:21:00,
2013-02-02 20:22:00,19.8,4.6,30.11,WSW,248,4.0,9.0,51,0.00,,,0.00,meteohub,2013-02-03 01:22:00,
2013-02-02 20:23:00,19.9,5.2,30.11,West,270,5.0,9.0,52,0.00,,,0.00,meteohub,2013-02-03 01:23:00,
2013-02-02 20:24:00,19.9,4.6,30.11,West,270,3.0,9.0,51,0.00,,,0.00,meteohub,2013-02-03 01:24:00,
2013-02-02 20:26:00,19.9,5.2,30.11,WNW,293,6.0,8.0,52,0.00,,,0.00,meteohub,2013-02-03 01:26:00,
2013-02-02 20:28:00,19.9,5.2,30.11,WSW,248,4.0,8.0,52,0.00,,,0.00,meteohub,2013-02-03 01:28:00,
2013-02-02 20:29:00,19.9,5.2,30.11,West,270,2.0,8.0,52,0.00,,,0.00,meteohub,2013-02-03 01:29:00,
2013-02-02 20:31:00,19.9,5.2,30.11,WSW,248,10.0,10.0,52,0.00,,,0.00,meteohub,2013-02-03 01:31:00,
2013-02-02 20:34:00,19.9,5.2,30.11,WSW,248,7.0,8.0,52,0.00,,,0.00,meteohub,2013-02-03 01:34:00,
2013-02-02 20:35:00,19.9,5.2,30.11,West,270,7.0,8.0,52,0.00,,,0.00,meteohub,2013-02-03 01:35:00,
2013-02-02 20:36:00,19.9,5.2,30.11,WSW,248,4.0,11.0,52,0.00,,,0.00,meteohub,2013-02-03 01:36:00,
2013-02-02 20:39:00,19.9,5.2,30.11,WSW,248,4.0,11.0,52,0.00,,,0.00,meteohub,2013-02-03 01:39:00,
2013-02-02 20:40:00,19.9,5.2,30.11,South,180,6.0,11.0,52,0.00,,,0.00,meteohub,2013-02-03 01:40:00,
2013-02-02 20:41:00,19.9,5.2,30.11,South,180,6.0,11.0,52,0.00,,,0.00,meteohub,2013-02-03 01:41:00,
2013-02-02 20:42:00,20.1,5.4,30.11,WSW,248,8.0,11.0,52,0.00,,,0.00,meteohub,2013-02-03 01:42:00,
2013-02-02 20:44:00,20.1,5.4,30.10,WSW,248,2.0,11.0,52,0.00,,,0.00,meteohub,2013-02-03 01:44:00,
2013-02-02 20:46:00,20.1,5.4,30.10,South,180,7.0,11.0,52,0.00,,,0.00,meteohub,2013-02-03 01:46:00,
2013-02-02 20:47:00,20.1,5.4,30.10,West,270,8.0,11.0,52,0.00,,,0.00,meteohub,2013-02-03 01:47:00,
2013-02-02 20:49:00,20.1,5.4,30.11,WSW,248,2.0,11.0,52,0.00,,,0.00,meteohub,2013-02-03 01:49:00,
2013-02-02 20:51:00,20.1,5.4,30.11,South,180,4.0,9.0,52,0.00,,,0.00,meteohub,2013-02-03 01:51:00,
2013-02-02 20:54:00,20.1,5.4,30.11,West,270,5.0,9.0,52,0.00,,,0.00,meteohub,2013-02-03 01:54:00,
2013-02-02 20:56:00,20.1,5.4,30.10,WSW,248,10.0,10.0,52,0.00,,,0.00,meteohub,2013-02-03 01:56:00,
2013-02-02 20:57:00,20.1,5.4,30.10,WSW,248,10.0,10.0,52,0.00,,,0.00,meteohub,2013-02-03 01:57:00,
2013-02-02 20:58:00,20.1,5.4,30.11,WSW,248,5.0,9.0,52,0.00,,,0.00,meteohub,2013-02-03 01:58:00,
2013-02-02 20:59:00,20.1,5.4,30.11,WSW,248,3.0,9.0,52,0.00,,,0.00,meteohub,2013-02-03 01:59:00,
2013-02-02 21:02:00,20.1,5.4,30.11,WSW,248,6.0,10.0,52,0.00,,,0.00,meteohub,2013-02-03 02:02:00,
2013-02-02 21:03:00,20.1,5.4,30.11,WSW,248,3.0,10.0,52,0.00,,,0.00,meteohub,2013-02-03 02:03:00,
2013-02-02 21:05:00,20.1,5.4,30.10,WSW,248,4.0,10.0,52,0.00,,,0.00,meteohub,2013-02-03 02:05:00,
2013-02-02 21:07:00,20.1,5.4,30.11,South,180,5.0,10.0,52,0.00,,,0.00,meteohub,2013-02-03 02:07:00,
2013-02-02 21:08:00,20.1,5.4,30.11,West,270,8.0,10.0,52,0.00,,,0.00,meteohub,2013-02-03 02:08:00,
2013-02-02 21:09:00,20.1,5.4,30.11,West,270,8.0,10.0,52,0.00,,,0.00,meteohub,2013-02-03 02:09:00,
2013-02-02 21:11:00,20.1,5.4,30.11,WSW,248,4.0,10.0,52,0.00,,,0.00,meteohub,2013-02-03 02:11:00,
2013-02-02 21:12:00,20.1,5.4,30.11,WSW,248,6.0,10.0,52,0.00,,,0.00,meteohub,2013-02-03 02:12:00,
2013-02-02 21:13:00,20.1,5.4,30.11,WSW,248,3.0,10.0,52,0.00,,,0.00,meteohub,2013-02-03 02:13:00,
2013-02-02 21:14:00,20.1,5.4,30.11,WSW,248,5.0,10.0,52,0.00,,,0.00,meteohub,2013-02-03 02:14:00,
2013-02-02 21:16:00,20.1,5.4,30.11,WSW,248,4.0,10.0,52,0.00,,,0.00,meteohub,2013-02-03 02:16:00,
2013-02-02 21:18:00,20.1,5.4,30.11,WSW,248,4.0,10.0,52,0.00,,,0.00,meteohub,2013-02-03 02:18:00,
2013-02-02 21:20:00,20.1,5.4,30.10,WSW,248,4.0,10.0,52,0.00,,,0.00,meteohub,2013-02-03 02:20:00,
2013-02-02 21:22:00,20.1,5.4,30.11,WSW,248,4.0,10.0,52,0.00,,,0.00,meteohub,2013-02-03 02:22:00,
2013-02-02 21:23:00,20.1,5.4,30.10,WSW,248,8.0,10.0,52,0.00,,,0.00,meteohub,2013-02-03 02:23:00,
2013-02-02 21:24:00,20.1,5.4,30.10,WSW,248,8.0,10.0,52,0.00,,,0.00,meteohub,2013-02-03 02:24:00,
2013-02-02 21:25:00,20.1,5.4,30.11,WSW,248,4.0,6.0,52,0.00,,,0.00,meteohub,2013-02-03 02:25:00,
2013-02-02 21:28:00,20.3,5.5,30.11,WSW,248,6.0,6.0,52,0.00,,,0.00,meteohub,2013-02-03 02:28:00,
2013-02-02 21:29:00,20.3,5.5,30.10,WSW,248,4.0,6.0,52,0.00,,,0.00,meteohub,2013-02-03 02:29:00,
2013-02-02 21:30:00,20.3,5.5,30.10,West,270,3.0,10.0,52,0.00,,,0.00,meteohub,2013-02-03 02:30:00,
2013-02-02 21:34:00,20.3,5.5,30.10,SE,135,8.0,10.0,52,0.00,,,0.00,meteohub,2013-02-03 02:34:00,
2013-02-02 21:35:00,20.1,5.4,30.10,WSW,248,5.0,10.0,52,0.00,,,0.00,meteohub,2013-02-03 02:35:00,
2013-02-02 21:36:00,20.3,5.5,30.10,WSW,248,8.0,10.0,52,0.00,,,0.00,meteohub,2013-02-03 02:36:00,
2013-02-02 21:38:00,20.1,5.4,30.10,WSW,248,6.0,10.0,52,0.00,,,0.00,meteohub,2013-02-03 02:38:00,
2013-02-02 21:40:00,20.1,5.4,30.10,WSW,248,9.0,11.0,52,0.00,,,0.00,meteohub,2013-02-03 02:40:00,
2013-02-02 21:41:00,20.1,5.4,30.10,West,270,5.0,11.0,52,0.00,,,0.00,meteohub,2013-02-03 02:41:00,
2013-02-02 21:43:00,20.1,5.4,30.10,West,270,13.0,13.0,52,0.00,,,0.00,meteohub,2013-02-03 02:43:00,
2013-02-02 21:45:00,20.1,5.4,30.10,West,270,9.0,13.0,52,0.00,,,0.00,meteohub,2013-02-03 02:45:00,
2013-02-02 21:46:00,20.1,5.4,30.10,WSW,248,4.0,13.0,52,0.00,,,0.00,meteohub,2013-02-03 02:46:00,
2013-02-02 21:47:00,20.1,5.4,30.10,WSW,248,7.0,13.0,52,0.00,,,0.00,meteohub,2013-02-03 02:47:00,
2013-02-02 21:51:00,20.1,5.4,30.10,NW,315,2.0,13.0,52,0.00,,,0.00,meteohub,2013-02-03 02:51:00,
2013-02-02 21:52:00,20.1,5.4,30.10,West,270,2.0,13.0,52,0.00,,,0.00,meteohub,2013-02-03 02:52:00,
2013-02-02 21:56:00,20.1,5.4,30.10,WSW,248,2.0,13.0,52,0.00,,,0.00,meteohub,2013-02-03 02:56:00,
2013-02-02 21:57:00,20.1,5.4,30.10,North,0,4.0,13.0,52,0.00,,,0.00,meteohub,2013-02-03 02:57:00,
2013-02-02 22:01:00,20.3,5.5,30.10,WSW,248,9.0,9.0,52,0.00,,,0.00,meteohub,2013-02-03 03:01:00,
2013-02-02 22:03:00,20.3,5.5,30.10,West,270,6.0,9.0,52,0.00,,,0.00,meteohub,2013-02-03 03:03:00,
2013-02-02 22:04:00,20.3,5.5,30.10,West,270,8.0,9.0,52,0.00,,,0.00,meteohub,2013-02-03 03:04:00,
2013-02-02 22:07:00,20.3,5.5,30.10,WSW,248,4.0,9.0,52,0.00,,,0.00,meteohub,2013-02-03 03:07:00,
2013-02-02 22:08:00,20.3,5.5,30.10,WSW,248,3.0,9.0,52,0.00,,,0.00,meteohub,2013-02-03 03:08:00,
2013-02-02 22:09:00,20.3,5.5,30.10,WSW,248,8.0,9.0,52,0.00,,,0.00,meteohub,2013-02-03 03:09:00,
2013-02-02 22:12:00,20.1,5.4,30.10,WSW,248,4.0,10.0,52,0.00,,,0.00,meteohub,2013-02-03 03:12:00,
2013-02-02 22:13:00,20.3,5.5,30.10,WSW,248,14.0,14.0,52,0.00,,,0.00,meteohub,2013-02-03 03:13:00,
2013-02-02 22:14:00,20.1,5.4,30.10,South,180,6.0,10.0,52,0.00,,,0.00,meteohub,2013-02-03 03:14:00,
2013-02-02 22:17:00,20.1,5.4,30.10,WSW,248,8.0,10.0,52,0.00,,,0.00,meteohub,2013-02-03 03:17:00,
2013-02-02 22:18:00,20.1,5.4,30.10,WSW,248,11.0,11.0,52,0.00,,,0.00,meteohub,2013-02-03 03:18:00,
2013-02-02 22:21:00,20.1,5.4,30.10,North,0,4.0,14.0,52,0.00,,,0.00,meteohub,2013-02-03 03:21:00,
2013-02-02 22:22:00,20.1,5.4,30.10,WSW,248,4.0,14.0,52,0.00,,,0.00,meteohub,2013-02-03 03:22:00,
2013-02-02 22:23:00,20.1,5.4,30.10,North,0,4.0,14.0,52,0.00,,,0.00,meteohub,2013-02-03 03:23:00,
2013-02-02 22:24:00,20.1,5.4,30.10,West,270,9.0,14.0,52,0.00,,,0.00,meteohub,2013-02-03 03:24:00,
2013-02-02 22:27:00,20.1,5.4,30.10,WSW,248,7.0,14.0,52,0.00,,,0.00,meteohub,2013-02-03 03:27:00,
2013-02-02 22:28:00,20.1,5.4,30.10,West,270,5.0,14.0,52,0.00,,,0.00,meteohub,2013-02-03 03:28:00,
2013-02-02 22:30:00,20.1,5.4,30.10,West,270,11.0,13.0,52,0.00,,,0.00,meteohub,2013-02-03 03:30:00,
2013-02-02 22:32:00,20.1,5.4,30.10,NW,315,8.0,13.0,52,0.00,,,0.00,meteohub,2013-02-03 03:32:00,
2013-02-02 22:33:00,20.1,5.4,30.10,West,270,5.0,13.0,52,0.00,,,0.00,meteohub,2013-02-03 03:33:00,
2013-02-02 22:34:00,20.1,5.4,30.10,South,180,3.0,13.0,52,0.00,,,0.00,meteohub,2013-02-03 03:34:00,
2013-02-02 22:37:00,20.1,5.4,30.10,WSW,248,4.0,11.0,52,0.00,,,0.00,meteohub,2013-02-03 03:37:00,
2013-02-02 22:38:00,20.1,5.4,30.09,NW,315,11.0,11.0,52,0.00,,,0.00,meteohub,2013-02-03 03:38:00,
2013-02-02 22:39:00,20.1,5.4,30.10,WSW,248,6.0,11.0,52,0.00,,,0.00,meteohub,2013-02-03 03:39:00,
2013-02-02 22:42:00,20.1,5.4,30.09,NW,315,8.0,11.0,52,0.00,,,0.00,meteohub,2013-02-03 03:42:00,
2013-02-02 22:43:00,20.1,5.4,30.09,West,270,7.0,11.0,52,0.00,,,0.00,meteohub,2013-02-03 03:43:00,
2013-02-02 22:44:00,20.1,5.4,30.09,WSW,248,5.0,11.0,52,0.00,,,0.00,meteohub,2013-02-03 03:44:00,
2013-02-02 22:47:00,20.1,5.4,30.09,West,270,10.0,11.0,52,0.00,,,0.00,meteohub,2013-02-03 03:47:00,
2013-02-02 22:48:00,20.1,5.4,30.09,WSW,248,8.0,11.0,52,0.00,,,0.00,meteohub,2013-02-03 03:48:00,
2013-02-02 22:49:00,20.1,5.4,30.09,West,270,4.0,11.0,52,0.00,,,0.00,meteohub,2013-02-03 03:49:00,
2013-02-02 22:53:00,19.9,5.2,30.09,West,270,5.0,11.0,52,0.00,,,0.00,meteohub,2013-02-03 03:53:00,
2013-02-02 22:55:00,19.9,5.2,30.09,WSW,248,4.0,11.0,52,0.00,,,0.00,meteohub,2013-02-03 03:55:00,
2013-02-02 22:58:00,19.9,5.2,30.09,WSW,248,4.0,11.0,52,0.00,,,0.00,meteohub,2013-02-03 03:58:00,
2013-02-02 22:59:00,20.1,5.4,30.09,West,270,7.0,11.0,52,0.00,,,0.00,meteohub,2013-02-03 03:59:00,
2013-02-02 23:00:00,19.9,5.2,30.09,WSW,248,4.0,11.0,52,0.00,,,0.00,meteohub,2013-02-03 04:00:00,
2013-02-02 23:03:00,20.1,5.4,30.09,WSW,248,3.0,11.0,52,0.00,,,0.00,meteohub,2013-02-03 04:03:00,
2013-02-02 23:04:00,20.1,5.4,30.09,WSW,248,3.0,11.0,52,0.00,,,0.00,meteohub,2013-02-03 04:04:00,
2013-02-02 23:06:00,20.1,5.4,30.09,NE,45,7.0,9.0,52,0.00,,,0.00,meteohub,2013-02-03 04:06:00,
2013-02-02 23:09:00,20.1,5.4,30.09,NW,315,4.0,9.0,52,0.00,,,0.00,meteohub,2013-02-03 04:09:00,
2013-02-02 23:10:00,20.1,5.4,30.09,NW,315,4.0,9.0,52,0.00,,,0.00,meteohub,2013-02-03 04:10:00,
2013-02-02 23:11:00,19.9,5.2,30.08,WSW,248,6.0,8.0,52,0.00,,,0.00,meteohub,2013-02-03 04:11:00,
2013-02-02 23:15:00,19.9,5.2,30.09,West,270,3.0,8.0,52,0.00,,,0.00,meteohub,2013-02-03 04:15:00,
2013-02-02 23:16:00,19.9,5.2,30.09,West,270,3.0,8.0,52,0.00,,,0.00,meteohub,2013-02-03 04:16:00,
2013-02-02 23:17:00,19.9,5.2,30.09,West,270,3.0,8.0,52,0.00,,,0.00,meteohub,2013-02-03 04:17:00,
2013-02-02 23:18:00,19.9,5.2,30.09,West,270,3.0,8.0,52,0.00,,,0.00,meteohub,2013-02-03 04:18:00,
2013-02-02 23:21:00,19.9,5.2,30.09,West,270,3.0,8.0,52,0.00,,,0.00,meteohub,2013-02-03 04:21:00,
2013-02-02 23:22:00,19.9,5.2,30.09,West,270,3.0,8.0,52,0.00,,,0.00,meteohub,2013-02-03 04:22:00,
2013-02-02 23:24:00,19.9,5.2,30.09,WSW,248,4.0,8.0,52,0.00,,,0.00,meteohub,2013-02-03 04:24:00,
2013-02-02 23:26:00,19.9,5.2,30.09,WSW,248,4.0,7.0,52,0.00,,,0.00,meteohub,2013-02-03 04:26:00,
2013-02-02 23:27:00,19.9,5.2,30.09,West,270,8.0,8.0,52,0.00,,,0.00,meteohub,2013-02-03 04:27:00,
2013-02-02 23:28:00,19.9,5.2,30.09,West,270,7.0,7.0,52,0.00,,,0.00,meteohub,2013-02-03 04:28:00,
2013-02-02 23:30:00,19.9,5.2,30.09,West,270,2.0,7.0,52,0.00,,,0.00,meteohub,2013-02-03 04:30:00,
2013-02-02 23:31:00,19.9,5.2,30.09,WSW,248,4.0,8.0,52,0.00,,,0.00,meteohub,2013-02-03 04:31:00,
2013-02-02 23:32:00,19.9,5.2,30.09,West,270,6.0,8.0,52,0.00,,,0.00,meteohub,2013-02-03 04:32:00,
2013-02-02 23:33:00,19.9,5.2,30.09,West,270,6.0,8.0,52,0.00,,,0.00,meteohub,2013-02-03 04:33:00,
2013-02-02 23:35:00,19.9,5.2,30.09,West,270,5.0,10.0,52,0.00,,,0.00,meteohub,2013-02-03 04:35:00,
2013-02-02 23:37:00,19.9,5.2,30.09,North,0,7.0,10.0,52,0.00,,,0.00,meteohub,2013-02-03 04:37:00,
2013-02-02 23:39:00,19.9,5.2,30.09,NW,315,5.0,10.0,52,0.00,,,0.00,meteohub,2013-02-03 04:39:00,
2013-02-02 23:41:00,19.9,5.2,30.09,South,180,7.0,10.0,52,0.00,,,0.00,meteohub,2013-02-03 04:41:00,
2013-02-02 23:44:00,19.9,5.2,30.09,NW,315,8.0,10.0,52,0.00,,,0.00,meteohub,2013-02-03 04:44:00,
2013-02-02 23:45:00,19.9,5.2,30.09,SE,135,10.0,10.0,52,0.00,,,0.00,meteohub,2013-02-03 04:45:00,
2013-02-02 23:46:00,19.9,5.2,30.09,West,270,4.0,10.0,52,0.00,,,0.00,meteohub,2013-02-03 04:46:00,
2013-02-02 23:49:00,19.9,5.2,30.09,WSW,248,8.0,10.0,52,0.00,,,0.00,meteohub,2013-02-03 04:49:00,
2013-02-02 23:51:00,19.9,5.2,30.09,WSW,248,7.0,10.0,52,0.00,,,0.00,meteohub,2013-02-03 04:51:00,
2013-02-02 23:52:00,19.9,5.2,30.09,WSW,248,4.0,10.0,52,0.00,,,0.00,meteohub,2013-02-03 04:52:00,
2013-02-02 23:54:00,19.9,5.2,30.09,West,270,8.0,10.0,52,0.00,,,0.00,meteohub,2013-02-03 04:54:00,
2013-02-02 23:56:00,19.9,5.2,30.09,West,270,8.0,10.0,52,0.00,,,0.00,meteohub,2013-02-03 04:56:00,
2013-02-02 23:57:00,19.9,5.2,30.09,WSW,248,5.0,10.0,52,0.00,,,0.00,meteohub,2013-02-03 04:57:00,
2013-02-02 23:59:00,19.9,5.2,30.09,North,0,5.0,10.0,52,0.00,,,0.00,meteohub,2013-02-03 04:59:00,